                ,  0.675,  0.775,  0.875,  0.975,  1.075,  1.175,  1.275,  1.375,  1.475,  1.575,  1.675,  1.775,  1.875,  1.975,  2.075,  2.175,  2.275,  2.375,  2.475,  2.575,  2.675,  2.775,  2.875,  2.975,  3.075,  3.175,  3.275,  3.375,  3.475,  3.575,  3.675,  3.775,  3.875,  3.975,  4.075,  4.175,  4.275,  4.375,  4.475,  4.575,  4.675,  4.775,  4.875,  4.975,  5.075,  5.175,  5.275,  5.375,  5.475,  5.575,  5.675,  5.775,  5.875,  5.975,  6.075,  6.175,  6.275,  6.375,  6.475,  6.575,  6.675,  6.775,  6.875,  6.975,  7.075,  7.175,  7.275,  7.375,  7.475,  7.575
2004/10/30 00:00,   -0.1,   -0.1,  999.0,   -0.1,   -0.1,   -0.3,   -0.3,   -0.4,  999.0,   -0.2,   -0.2,   -0.2,   -0.4,   -0.1,    0.0,   -0.0,   -0.3,  999.0,  999.0,  999.0,    0.1,    0.0,    0.0,  999.0,   -0.0,    0.1,    0.1,   -0.0,    0.1,    0.3,   -0.0,   -0.5,   -0.3,    0.0,    0.2,    0.1,    0.3,  999.0,  999.0,  999.0,  999.0,    0.2,  999.0,    0.1,   -0.1,   -0.2,   -0.7,   -0.9,   -0.9,   -1.1,   -0.8,   -0.9,   -0.9,   -1.0,   -0.9,   -0.8,   -0.8,   -0.9,   -0.8,   -0.7,   -0.8,   -0.9,   -0.9,   -0.9,   -0.8,   -0.8,   -0.8,   -0.8,   -0.9,   -0.8
2004/10/30 00:10,   -0.0,   -0.0,  999.0,   -0.0,    0.0,   -0.0,    0.0,   -0.0,   -0.1,   -0.2,   -0.0,   -0.1,   -0.2,   -0.2,   -0.2,   -0.3,   -0.2,   -0.1,   -0.0,    0.0,    0.2,    0.1,    0.1,    0.1,    0.1,   -0.0,    0.2,   -0.0,   -0.0,   -0.0,   -0.0,   -0.2,   -0.2,   -0.2,   -0.3,   -0.5,   -0.1,  999.0,  999.0,  999.0,  999.0,    0.2,   -0.3,   -0.2,   -0.6,   -0.4,   -0.7,   -1.3,   -1.5,   -1.3,   -1.0,   -1.0,   -1.0,   -0.9,   -0.9,   -0.9,   -0.9,   -0.9,   -0.9,   -0.9,   -0.9,   -0.9,   -0.9,   -0.9,   -0.9,   -0.9,   -0.9,   -0.8,   -0.9,   -0.9
2004/10/30 00:20,   -0.0,   -0.0,   -0.0,    0.0,    0.1,    0.1,    0.0,   -0.0,   -0.1,    0.0,   -0.2,   -0.1,   -0.3,   -0.1,   -0.3,   -0.4,   -0.2,   -0.0,   -0.2,   -0.1,    0.0,    0.2,   -0.1,    0.1,    0.1,    0.2,    0.1,    0.1,   -0.2,   -0.1,   -0.1,   -0.2,   -0.0,   -0.1,    0.1,    0.1,    0.1,  999.0,  999.0,    0.0,   -0.1,    0.3,  999.0,   -0.2,   -0.6,   -0.4,   -0.6,   -1.1,   -0.9,   -1.0,   -0.9,   -0.9,   -0.8,   -0.8,   -0.8,   -0.9,   -0.9,   -0.9,   -0.9,   -0.8,   -0.9,   -0.9,   -0.9,   -0.9,   -1.0,   -1.0,   -1.1,   -1.1,   -1.1,   -1.1
2004/10/30 00:30,   -0.1,   -0.0,   -0.0,   -0.1,   -0.0,    0.1,   -0.1,    0.0,   -0.0,   -0.1,   -0.1,   -0.1,   -0.0,   -0.1,   -0.1,    0.0,    0.0,   -0.0,   -0.2,   -0.0,    0.0,    0.0,    0.0,    0.1,    0.1,   -0.2,    0.0,    0.0,   -0.3,   -0.3,   -0.2,   -0.2,   -0.1,  999.0,    0.0,    0.2,    0.4,    0.4,  999.0,  999.0,  999.0,  999.0,  999.0,  999.0,  999.0,   -0.9,   -0.6,   -0.9,   -1.0,   -0.9,   -1.1,   -1.0,   -1.1,   -1.0,   -1.0,   -1.0,   -1.1,   -1.1,   -1.1,   -1.2,   -1.1,   -1.2,   -1.2,   -1.2,   -1.2,   -1.2,   -1.2,   -1.2,   -1.1,   -1.1
2004/10/30 00:40,   -0.1,   -0.0,   -0.0,   -0.1,   -0.0,   -0.2,   -0.2,   -0.3,   -0.3,   -0.2,   -0.2,   -0.4,   -0.6,   -0.1,   -0.9,   -0.5,   -0.6,   -0.3,   -0.6,   -0.3,   -0.2,   -0.2,   -0.1,   -0.1,   -0.0,   -0.1,   -0.2,   -0.1,   -0.1,   -0.3,   -0.6,   -0.3,   -0.2,   -0.2,   -0.5,   -0.3,  999.0,  999.0,  999.0,   -0.2,  999.0,  999.0,   -0.0,   -0.4,   -1.2,   -0.9,   -1.3,   -1.3,   -1.1,   -1.1,   -1.1,   -1.1,   -1.1,   -1.1,   -1.1,   -1.2,   -1.3,   -1.2,   -1.1,   -1.2,   -1.2,   -1.1,   -1.2,   -1.2,   -1.3,   -1.3,   -1.3,   -1.3,   -1.3,   -1.4
2004/10/30 00:50,   -0.0,   -0.0,   -0.0,    0.0,   -0.1,   -0.1,   -0.0,   -0.2,   -0.1,   -0.1,   -0.1,   -0.0,   -0.1,   -0.1,    0.1,   -0.3,   -0.3,   -0.3,   -0.1,   -0.1,   -0.1,    0.0,    0.2,    0.2,    0.3,    0.5,    0.4,    0.4,   -0.1,   -0.3,   -0.2,    0.1,   -0.3,   -0.4,   -0.3,   -0.7,   -1.0,  999.0,  999.0,  999.0,  999.0,  999.0,  999.0,   -0.9,   -1.3,   -1.4,   -1.4,   -1.2,   -1.3,   -1.3,   -1.3,   -1.3,   -1.3,   -1.3,   -1.3,   -1.3,   -1.3,   -1.3,   -1.3,   -1.2,   -1.2,   -1.3,   -1.2,   -1.3,   -1.3,   -1.3,   -1.3,   -1.3,   -1.3,   -1.3
2004/10/30 01:00,   -0.2,   -0.1,   -0.2,   -0.2,   -0.1,   -0.3,   -0.5,   -0.1,   -0.1,   -0.0,   -0.1,    0.0,   -0.1,   -0.2,   -0.1,   -0.0,    0.0,    0.1,    0.1,   -0.2,   -0.1,   -0.4,    0.1,   -0.1,   -0.1,   -0.0,   -0.0,   -0.1,   -0.2,   -0.2,   -0.2,   -0.1,    0.0,    0.2,   -0.0,    0.1,    0.2,  999.0,  999.0,  999.0,  999.0,  999.0,  999.0,   -1.5,   -1.5,   -1.5,   -1.6,   -1.5,   -1.5,   -1.4,   -1.5,   -1.5,   -1.5,   -1.5,   -1.5,   -1.5,   -1.5,   -1.5,   -1.5,   -1.5,   -1.4,   -1.5,   -1.4,   -1.4,   -1.4,   -1.4,   -1.3,   -1.3,   -1.3,   -1.3
2004/10/30 01:10,   -0.1,   -0.0,   -0.1,   -0.1,   -0.0,   -0.2,    0.0,   -0.1,   -0.3,   -0.7,   -0.9,   -0.8,   -0.5,   -0.7,   -0.5,   -0.2,   -0.3,   -0.4,   -0.4,   -0.4,   -0.3,   -0.3,   -0.2,   -0.2,   -0.2,   -0.1,   -0.2,   -0.2,   -0.3,   -0.3,   -0.2,   -0.3,   -0.2,    0.0,   -0.1,    0.0,  999.0,  999.0,   -0.0,    0.0,   -0.3,   -0.7,   -0.8,   -1.7,   -2.3,   -2.4,   -2.0,   -1.8,   -1.6,   -1.4,   -1.4,   -1.4,   -1.4,   -1.3,   -1.3,   -1.2,   -1.1,   -1.1,   -1.0,   -1.1,   -1.1,   -1.1,   -1.1,   -1.0,   -1.0,   -0.9,   -0.9,   -1.0,   -0.9,   -1.0
2004/10/30 01:20,   -0.0,    0.1,  999.0,   -0.3,   -0.1,   -0.2,    0.0,    0.0,   -0.6,   -0.2,   -0.2,   -0.7,   -0.6,   -0.5,   -0.6,   -0.3,   -0.4,   -0.2,   -0.2,   -0.2,   -0.2,    0.1,    0.2,    0.1,    0.0,    0.0,    0.2,   -0.0,   -0.2,   -0.2,   -0.0,   -0.0,   -0.2,   -0.3,  999.0,  999.0,  999.0,  999.0,   -0.2,   -0.2,   -0.4,   -0.7,   -1.5,   -1.9,   -2.0,   -2.0,   -1.9,   -1.7,   -1.4,   -1.3,   -1.3,   -1.3,   -1.1,   -1.2,   -1.1,   -1.1,   -1.1,   -1.1,   -1.1,   -1.1,   -1.1,   -1.1,   -1.1,   -1.1,   -1.2,   -1.2,   -1.2,   -1.2,   -1.2,   -1.2
2004/10/30 01:30,    0.3,   -1.5,   -0.1,   -1.0,   -0.8,   -1.1,   -2.0,   -1.5,   -1.7,   -2.0,   -2.3,   -2.0,   -1.9,   -1.9,   -1.6,   -1.3,   -1.0,   -0.8,   -0.5,   -0.4,   -0.3,   -0.5,   -0.0,    0.0,    0.1,   -0.2,   -0.1,   -0.0,    0.1,   -0.2,   -0.1,   -0.2,   -0.1,  999.0,  999.0,  999.0,  999.0,   -1.5,   -1.8,   -0.7,   -0.5,   -1.7,   -2.1,   -2.5,   -2.4,   -1.5,   -1.7,   -1.6,   -1.4,   -1.4,   -1.4,   -1.4,   -1.4,   -1.4,   -1.4,   -1.5,   -1.5,   -1.5,   -1.4,   -1.4,   -1.4,   -1.4,   -1.3,   -1.3,   -1.3,   -1.3,   -1.3,   -1.3,   -1.3,   -1.3
2004/10/30 01:40,   -1.6,  999.0,  999.0,   -1.1,  999.0,   -1.5,   -1.2,   -1.2,  999.0,   -0.8,   -1.0,   -0.9,   -0.6,   -0.9,   -0.4,   -0.2,   -0.3,   -0.2,   -0.2,   -0.2,   -0.1,   -0.0,   -0.1,   -0.0,   -0.2,    0.0,   -0.0,   -0.0,   -0.3,   -0.2,   -0.1,   -0.1,   -0.3,  999.0,  999.0,   -1.0,   -0.3,   -0.6,   -0.6,   -0.8,   -0.5,  999.0,   -1.3,   -1.2,   -1.6,   -1.3,   -1.2,   -1.2,   -1.1,   -1.2,   -1.1,   -1.1,   -1.0,   -1.0,   -1.0,   -1.2,   -1.2,   -1.2,   -1.3,   -1.3,   -1.3,   -1.4,   -1.4,   -1.3,   -1.3,   -1.3,   -1.2,   -1.2,   -1.2,   -1.2
2004/10/30 01:50,   -0.1,   -0.0,   -0.0,   -0.1,   -0.0,   -0.0,    0.3,   -0.3,   -0.2,   -0.3,   -0.2,   -0.3,   -0.2,   -0.5,   -0.4,   -0.4,   -0.3,   -0.4,   -0.1,   -0.2,   -0.2,   -0.1,   -0.1,   -0.1,   -0.1,   -0.2,   -0.1,   -0.1,   -0.5,   -0.1,   -0.4,   -0.6,   -0.1,   -1.1,   -0.7,   -1.0,    0.2,   -0.1,    0.1,   -0.3,   -0.6,   -1.1,   -1.5,   -1.3,   -1.5,   -1.4,   -1.2,   -1.0,   -0.9,   -0.9,   -0.7,   -0.9,   -1.0,   -1.0,   -1.1,   -1.2,   -1.3,   -1.3,   -1.3,   -1.3,   -1.3,   -1.2,   -1.2,   -1.2,   -1.2,   -1.2,   -1.2,   -1.2,   -1.2,   -1.2
2004/10/30 02:00,    0.0,   -0.1,    0.1,   -0.0,    0.0,   -0.0,   -0.0,   -0.5,   -0.6,   -0.6,   -0.4,   -0.4,   -0.6,   -0.3,   -0.4,   -0.3,   -0.2,   -0.4,   -0.4,   -0.4,   -0.3,   -0.0,   -0.0,   -0.2,  999.0,    0.1,   -0.1,   -0.1,    0.1,    0.0,    0.4,    0.3,    0.4,  999.0,    0.0,  999.0,  999.0,   -0.1,  999.0,   -1.4,  999.0,   -2.0,   -1.8,   -1.8,   -1.7,   -1.6,   -1.3,   -1.1,   -0.9,   -0.8,   -0.9,   -0.9,   -0.8,   -0.8,   -0.9,   -1.1,   -1.1,   -1.2,   -1.1,   -1.2,   -1.2,   -1.1,   -1.0,   -1.0,   -1.1,   -1.1,   -1.1,   -1.0,   -1.0,   -1.1
2004/10/30 02:10,   -0.5,   -0.6,   -0.8,   -1.1,   -1.3,   -1.3,   -1.6,   -1.5,   -1.6,   -1.6,   -1.5,   -1.4,   -1.3,   -1.3,   -1.0,   -0.4,   -0.4,   -0.3,   -0.2,   -0.2,   -0.0,    0.0,    0.1,   -0.0,   -0.1,   -0.2,    0.2,    0.2,   -0.0,    0.1,    0.0,   -0.0,   -0.1,   -0.3,   -0.2,  999.0,   -0.6,   -1.1,   -1.5,   -2.2,   -1.9,   -1.9,   -1.8,   -1.6,   -1.4,   -1.5,   -1.5,   -1.4,   -1.2,   -1.1,   -1.0,   -1.0,   -1.0,   -1.0,   -1.1,   -1.1,   -1.1,   -1.1,   -1.1,   -1.1,   -1.1,   -1.1,   -1.0,   -1.1,   -1.1,   -1.1,   -1.1,   -1.1,   -1.1,   -1.1
2004/10/30 02:20,   -3.0,   -2.9,   -2.7,   -2.5,   -2.1,   -2.0,   -1.9,   -2.0,   -1.9,   -1.8,   -1.8,   -1.8,   -1.6,   -1.5,   -1.2,   -0.6,   -0.6,   -0.4,   -0.3,   -0.4,   -0.4,   -0.3,   -0.1,   -0.1,   -0.0,    0.0,    0.0,    0.2,    0.2,   -0.1,   -0.1,    0.3,    0.3,    0.5,    0.4,   -0.1,   -0.2,  999.0,  999.0,   -1.9,   -1.7,   -1.6,   -1.6,   -1.4,   -1.3,   -1.2,   -1.2,   -1.3,   -1.2,   -1.1,   -1.1,   -1.1,   -1.1,   -1.1,   -1.1,   -1.2,   -1.2,   -1.2,   -1.2,   -1.3,   -1.3,   -1.3,   -1.3,   -1.3,   -1.3,   -1.3,   -1.2,   -1.2,   -1.3,   -1.3
2004/10/30 02:30,   -2.9,   -2.7,   -2.6,   -2.5,   -2.4,   -2.4,   -2.4,   -2.3,   -2.3,   -2.3,   -2.3,   -2.2,   -2.3,   -2.2,   -2.0,   -1.8,   -1.3,   -1.2,   -1.0,   -0.7,   -0.6,   -0.5,   -0.4,   -0.4,   -0.5,   -0.5,   -0.6,   -0.7,   -0.9,   -1.1,   -1.0,   -0.7,   -0.9,   -1.2,   -0.3,   -2.2,   -3.2,   -3.2,   -3.0,   -2.8,   -1.6,   -1.8,   -1.5,   -1.4,   -1.3,   -1.0,   -0.8,   -0.7,   -0.7,   -0.8,   -0.8,   -0.9,   -0.9,   -1.0,   -1.0,   -0.9,   -1.0,   -1.0,   -1.0,   -1.0,   -1.0,   -1.1,   -1.0,   -1.0,   -1.0,   -1.0,   -1.0,   -1.0,   -1.0,   -1.1
2004/10/30 02:40,   -2.6,   -2.4,   -2.3,   -2.1,   -2.0,   -2.1,   -2.0,   -1.9,   -1.8,   -1.7,   -1.6,   -1.6,   -1.6,   -1.5,   -1.5,   -1.4,   -1.4,   -0.9,   -0.9,   -0.7,   -0.6,   -0.3,   -0.0,   -0.0,   -0.0,   -0.0,   -0.1,   -0.2,   -0.1,   -0.1,   -0.4,   -0.6,   -0.9,  999.0,   -1.3,   -1.6,   -1.9,   -1.9,   -2.0,   -2.0,   -1.7,   -1.5,   -1.5,   -1.5,   -1.5,   -1.5,   -1.5,   -1.5,   -1.4,   -1.4,   -1.4,   -1.4,   -1.3,   -1.4,   -1.4,   -1.4,   -1.3,   -1.3,   -1.2,   -1.2,   -1.2,   -1.2,   -1.2,   -1.2,   -1.2,   -1.1,   -1.2,   -1.1,   -1.2,   -1.1
2004/10/30 02:50,   -3.7,   -3.4,   -3.2,   -2.7,   -2.5,   -2.5,   -2.3,   -2.3,   -2.3,   -2.0,   -1.9,   -1.7,   -1.5,   -1.5,   -1.6,   -1.1,   -0.9,   -0.8,   -0.6,   -0.5,   -0.4,   -0.3,   -0.1,   -0.2,    0.0,    0.2,    0.4,    0.3,    0.4,    0.2,    0.2,    0.1,  999.0,   -1.0,   -1.4,   -1.6,   -1.6,   -1.6,   -1.6,   -1.6,   -1.3,   -1.5,   -1.5,   -1.4,   -1.4,   -1.3,   -1.3,   -1.3,   -1.2,   -1.2,   -1.3,   -1.3,   -1.2,   -1.3,   -1.2,   -1.2,   -1.2,   -1.2,   -1.1,   -1.1,   -1.0,   -1.0,   -1.0,   -0.9,   -1.0,   -0.9,   -0.9,   -0.9,   -0.9,   -0.9
2004/10/30 03:00,   -2.3,   -2.2,   -2.2,   -2.1,   -2.1,   -2.1,   -1.9,   -1.8,   -1.7,   -1.6,   -1.6,   -1.6,   -1.6,   -1.5,   -1.5,   -1.4,   -1.3,   -1.2,   -1.1,   -0.8,   -0.6,   -0.3,   -0.2,   -0.1,    0.1,    0.2,    0.2,    0.1,    0.1,    0.1,   -0.0,   -0.2,   -0.4,   -1.0,   -2.2,   -1.8,   -1.7,   -1.7,   -1.6,   -1.5,   -1.4,   -1.5,   -1.4,   -1.5,   -1.3,   -1.3,   -1.3,   -1.1,   -1.0,   -0.9,   -1.0,   -1.1,   -1.2,   -1.2,   -1.2,   -1.2,   -1.1,   -1.0,   -1.0,   -0.9,   -0.9,   -0.8,   -0.8,   -0.8,   -0.8,   -0.9,   -0.9,   -0.9,   -0.9,   -0.9
2004/10/30 03:10,   -2.5,   -2.3,   -2.2,   -2.4,   -2.4,   -2.2,   -2.2,   -2.0,   -1.9,   -1.9,   -1.9,   -1.9,   -1.8,   -1.8,   -1.7,   -1.8,   -1.6,   -1.5,   -1.4,   -1.3,   -1.2,   -0.8,   -0.6,   -0.4,   -0.2,   -0.2,   -0.4,   -0.7,   -0.4,   -0.4,   -0.3,   -0.3,   -0.9,   -1.4,   -1.8,   -2.1,   -2.1,   -2.0,   -2.0,   -2.0,   -1.9,   -2.0,   -1.8,   -1.5,   -1.5,   -1.4,   -1.3,   -1.1,   -1.1,   -1.1,   -1.1,   -1.0,   -1.1,   -1.1,   -1.2,   -1.1,   -1.1,   -1.2,   -1.2,   -1.2,   -1.2,   -1.2,   -1.2,   -1.2,   -1.2,   -1.1,   -1.1,   -1.2,   -1.2,   -1.3
2004/10/30 03:20,   -2.6,   -2.6,   -2.5,   -2.7,   -2.6,   -2.9,   -3.0,   -2.8,   -2.7,   -2.5,   -2.6,   -2.5,   -2.4,   -2.3,   -2.1,   -2.0,   -2.0,   -1.7,   -1.5,   -1.2,   -1.0,   -0.7,   -0.6,   -0.5,   -0.3,   -0.6,  999.0,   -0.4,   -0.3,   -0.7,   -0.4,   -0.6,   -0.7,   -1.2,   -1.9,   -2.4,   -2.4,   -2.3,   -2.1,   -1.8,   -1.6,   -1.5,   -1.4,   -1.2,   -1.3,   -1.1,   -1.1,   -1.0,   -0.9,   -0.8,   -0.7,   -0.7,   -0.9,   -1.1,   -1.1,   -1.1,   -1.1,   -1.1,   -1.1,   -1.1,   -1.1,   -1.1,   -1.2,   -1.1,   -1.1,   -1.1,   -1.2,   -1.2,   -1.2,   -1.2
2004/10/30 03:30,   -3.2,   -3.1,   -2.9,   -2.9,   -3.0,   -3.0,   -3.1,   -3.0,   -2.9,   -2.7,   -2.6,   -2.4,   -2.2,   -2.2,   -2.1,   -1.9,   -1.8,   -1.8,   -1.3,   -1.1,   -0.7,   -0.4,   -0.6,   -0.6,   -0.6,    0.4,   -0.2,   -0.2,   -0.0,   -0.1,   -0.1,   -0.3,   -1.6,   -1.7,   -1.9,   -2.0,   -2.2,   -2.2,   -1.8,   -1.6,   -1.5,   -1.5,   -1.4,   -1.3,   -1.2,   -1.2,   -1.1,   -1.0,   -0.9,   -0.7,   -0.8,   -0.8,   -0.6,   -0.7,   -0.7,   -0.8,   -0.9,   -0.9,   -0.8,   -0.9,   -0.9,   -1.0,   -1.0,   -1.1,   -1.0,   -1.1,   -1.2,   -1.3,   -1.2,   -1.3
2004/10/30 03:40,   -3.6,   -3.4,   -3.5,   -3.4,   -3.5,   -3.4,   -3.4,   -3.2,   -3.1,   -2.9,   -2.8,   -2.8,   -2.6,   -2.5,   -2.3,   -2.0,   -1.8,   -1.6,   -1.5,   -1.3,   -1.1,   -1.0,   -1.0,   -0.9,   -0.6,   -0.9,   -1.0,   -1.2,   -1.5,   -1.1,   -1.7,   -2.0,   -2.3,   -2.2,   -1.9,   -1.8,   -1.7,   -1.3,   -1.5,   -1.7,   -1.4,   -1.2,   -1.2,   -1.2,   -1.2,   -1.2,   -1.2,   -1.2,   -1.3,   -1.3,   -1.0,   -0.9,   -0.9,   -0.8,   -0.8,   -0.8,   -1.0,   -1.0,   -1.0,   -1.1,   -1.0,   -1.1,   -1.1,   -1.1,   -1.1,   -1.3,   -1.3,   -1.3,   -1.2,   -1.2
2004/10/30 03:50,   -3.1,   -2.9,   -2.8,   -2.8,   -2.6,   -2.4,   -2.2,   -2.2,   -1.9,   -1.8,   -1.7,   -1.6,   -1.5,   -1.4,   -1.2,   -1.0,   -0.9,   -0.6,   -0.4,   -0.4,   -0.5,   -0.2,    0.0,   -0.0,   -0.0,   -0.8,   -0.5,   -2.5,   -2.4,   -1.7,   -2.2,   -2.4,   -2.2,   -2.2,   -1.9,   -1.7,   -1.7,   -1.8,   -1.8,   -1.8,   -1.7,   -1.6,   -1.5,   -1.4,   -1.4,   -1.3,   -1.4,   -1.3,   -1.2,   -1.2,   -1.2,   -1.2,   -1.2,   -1.1,   -1.1,   -1.1,   -1.1,   -1.1,   -1.0,   -1.0,   -1.0,   -1.0,   -1.0,   -1.0,   -1.1,   -1.2,   -1.2,   -1.2,   -1.1,   -1.2
2004/10/30 04:00,   -2.5,   -2.4,   -2.4,   -2.1,   -2.0,   -1.9,   -1.8,   -1.8,   -1.7,   -1.6,   -1.5,   -1.3,   -1.1,   -1.0,   -0.8,   -0.5,   -0.3,   -0.0,    0.3,    0.5,    0.5,    0.6,    0.5,    0.6,    0.3,    0.5,    0.5,    0.4,    0.5,   -0.5,   -1.2,   -1.5,   -1.5,   -1.3,   -1.3,   -1.2,   -1.2,   -1.3,   -1.3,   -1.2,   -1.1,   -1.1,   -1.1,   -1.0,   -1.0,   -1.0,   -1.0,   -0.8,   -0.8,   -0.8,   -0.8,   -0.8,   -0.8,   -0.9,   -0.9,   -1.0,   -1.0,   -1.1,   -1.1,   -1.1,   -1.0,   -1.0,   -1.1,   -1.2,   -1.1,   -1.2,   -1.1,   -1.1,   -1.0,   -1.1
2004/10/30 04:10,   -2.7,   -2.8,   -2.7,   -2.7,   -2.7,   -3.0,   -2.8,   -2.7,   -2.6,   -2.5,   -2.3,   -2.2,   -2.0,   -1.9,   -1.7,   -1.5,   -1.2,   -1.0,   -0.7,   -0.4,   -0.3,   -0.5,   -0.4,   -0.2,    0.1,  999.0,    0.1,    0.1,   -0.4,   -0.2,   -1.0,   -2.1,   -1.1,   -1.3,   -1.3,   -1.5,   -1.4,   -1.6,   -1.5,   -1.5,   -1.4,   -1.2,   -1.1,   -1.0,   -1.0,   -1.0,   -0.9,   -0.8,   -0.8,   -0.8,   -0.8,   -0.8,   -0.8,   -0.8,   -0.8,   -0.9,   -0.9,   -0.9,   -1.0,   -1.0,   -0.9,   -0.9,   -1.0,   -0.9,   -0.9,   -1.0,   -1.1,   -1.1,   -1.1,   -1.1
2004/10/30 04:20,   -3.1,   -3.3,   -3.3,   -3.5,   -3.2,   -3.2,   -3.0,   -2.8,   -2.7,   -2.5,   -2.4,   -2.2,   -2.0,   -1.8,   -1.6,   -1.5,   -1.1,   -0.9,   -0.6,   -0.7,   -0.7,   -0.5,   -0.5,   -0.7,   -0.2,    0.7,   -0.8,   -0.6,   -2.3,   -3.3,   -2.8,   -3.0,   -3.1,   -3.1,   -2.9,   -2.2,   -2.0,   -1.7,   -1.4,   -1.1,   -0.8,   -0.8,   -0.8,   -1.0,   -1.0,   -1.1,   -1.1,   -1.2,   -1.2,   -1.1,   -1.1,   -1.1,   -1.1,   -1.1,   -1.1,   -1.1,   -1.2,   -1.2,   -1.1,   -1.0,   -1.0,   -1.0,   -1.1,   -1.0,   -1.1,   -1.2,   -1.3,   -1.2,   -1.3,   -1.3
2004/10/30 04:30,   -3.3,   -3.1,   -3.2,   -3.1,   -3.2,   -2.8,   -2.8,   -2.6,   -2.6,   -2.5,   -2.3,   -1.9,   -1.7,   -1.5,   -1.3,   -1.1,   -0.8,   -0.3,   -0.2,   -0.2,   -0.1,    0.2,    0.2,    0.3,   -0.0,   -0.1,   -0.8,   -0.8,   -1.4,   -2.2,   -2.3,   -2.8,   -2.3,   -2.4,   -2.3,   -2.0,   -1.8,   -1.5,   -1.2,   -1.2,   -1.3,   -1.3,   -1.2,   -1.2,   -1.3,   -1.3,   -1.4,   -1.3,   -1.3,   -1.2,   -1.2,   -1.1,   -1.1,   -1.1,   -1.1,   -1.1,   -1.1,   -1.1,   -1.1,   -1.2,   -1.2,   -1.3,   -1.3,   -1.3,   -1.4,   -1.4,   -1.4,   -1.4,   -1.4,   -1.5
2004/10/30 04:40,  999.0,   -2.3,   -2.4,   -2.1,   -1.8,   -1.7,   -1.5,   -1.3,   -1.0,   -0.6,   -0.7,   -0.7,   -0.6,   -0.4,   -0.3,   -0.2,   -0.1,   -0.2,    0.3,    0.1,    0.1,    0.1,    0.1,   -0.1,   -0.4,   -1.3,   -2.2,   -2.4,   -2.4,   -2.7,   -2.9,   -2.8,   -2.7,   -2.6,   -2.3,   -1.8,   -1.5,   -1.0,   -0.9,   -0.7,   -0.7,   -0.8,   -0.8,   -0.8,   -0.9,   -0.9,   -1.1,   -1.0,   -1.0,   -1.1,   -1.1,   -1.2,   -1.1,   -1.2,   -1.2,   -1.3,   -1.4,   -1.4,   -1.4,   -1.4,   -1.3,   -1.4,   -1.3,   -1.3,   -1.3,   -1.3,   -1.2,   -1.2,   -1.1,   -1.2
2004/10/30 04:50,   -2.8,   -2.7,   -2.2,   -2.4,   -2.3,   -2.3,   -2.2,   -2.1,   -2.0,   -1.7,   -1.5,   -1.3,   -1.0,   -0.8,   -0.3,    0.1,    0.2,    0.5,    0.2,    0.2,    0.3,    0.2,   -0.1,   -0.2,   -0.3,    0.0,   -1.1,   -2.3,   -3.2,   -3.2,   -2.8,   -2.4,   -2.5,   -2.2,   -2.0,   -1.8,   -1.5,   -1.4,   -1.2,   -1.2,   -1.3,   -1.3,   -1.4,   -1.5,   -1.5,   -1.4,   -1.5,   -1.4,   -1.4,   -1.3,   -1.3,   -1.3,   -1.4,   -1.5,   -1.6,   -1.5,   -1.5,   -1.3,   -1.2,   -1.2,   -1.1,   -1.0,   -0.9,   -0.9,   -0.9,   -0.9,   -1.0,   -1.0,   -1.0,   -1.1
2004/10/30 05:00,   -0.0,   -0.9,   -0.4,   -0.8,   -1.6,   -2.1,   -2.4,   -2.2,   -1.7,   -1.4,   -1.2,   -1.1,   -0.8,   -0.6,   -0.4,   -0.1,    0.2,    0.2,    0.2,    0.1,    0.2,   -0.1,    0.2,    0.1,    0.5,    0.7,  999.0,   -2.4,   -2.3,   -3.2,   -3.0,   -2.2,   -2.4,   -1.7,   -1.8,   -1.6,   -1.2,   -1.0,   -1.1,   -1.3,   -1.3,   -1.4,   -1.4,   -1.4,   -1.4,   -1.4,   -1.4,   -1.4,   -1.3,   -1.3,   -1.3,   -1.4,   -1.3,   -1.2,   -1.2,   -1.1,   -1.0,   -1.0,   -0.9,   -0.9,   -1.0,   -1.0,   -1.1,   -0.9,   -0.7,   -0.9,   -1.2,   -1.2,  999.0,  999.0
2004/10/30 05:10,  999.0,   -1.0,   -1.1,   -1.2,   -1.5,   -1.1,   -1.8,   -1.7,   -1.8,   -1.7,   -1.9,   -1.7,   -1.7,   -1.4,   -1.5,   -1.2,   -1.1,   -0.8,   -0.7,   -0.8,   -0.7,   -0.6,   -0.5,   -0.4,   -0.5,   -0.6,   -1.3,   -2.1,   -1.3,   -2.2,   -2.1,   -2.0,   -1.7,   -1.3,   -1.3,   -1.2,   -1.1,   -1.1,   -1.1,   -1.1,   -1.1,   -1.2,   -1.3,   -1.3,   -1.3,   -1.3,   -1.3,   -1.4,   -1.4,   -1.3,   -1.0,   -0.9,   -0.8,   -0.8,   -0.6,   -0.7,   -1.1,   -1.5,   -1.5,   -1.8,   -1.7,   -1.7,   -1.6,   -1.5,   -1.5,   -1.5,   -1.4,   -1.4,  999.0,  999.0
2004/10/30 05:20,   -0.1,   -0.1,   -0.3,   -0.0,   -0.4,   -0.7,   -0.8,   -0.7,   -1.1,   -0.9,   -0.5,   -0.3,   -0.4,   -0.5,   -0.8,   -0.4,   -0.3,   -1.5,   -1.5,   -1.3,   -1.4,   -1.0,   -0.9,   -0.4,   -1.1,   -2.0,   -1.7,   -1.8,   -2.0,   -2.1,   -1.8,   -1.9,   -2.0,   -1.9,   -1.8,   -1.7,   -1.5,   -1.3,   -1.2,   -1.1,   -1.1,   -1.1,   -1.1,   -1.2,   -1.2,   -1.2,   -1.3,   -1.2,   -1.3,   -1.5,   -1.1,   -1.3,   -1.2,   -1.1,  999.0,   -1.1,   -2.0,   -1.9,   -1.7,   -1.6,   -1.6,   -1.6,   -1.2,   -1.4,   -1.2,   -1.2,   -1.1,  999.0,  999.0,  999.0
2004/10/30 05:30,  999.0,   -2.6,   -2.4,   -2.8,   -3.2,   -3.7,   -4.3,   -3.9,   -3.7,   -3.9,   -3.7,   -3.3,   -3.8,   -3.3,   -3.5,   -3.4,   -4.1,   -4.8,   -4.6,   -3.9,   -2.5,  999.0,  999.0,   -0.5,  999.0,   -2.0,   -2.6,   -2.9,   -3.1,   -2.8,   -2.5,   -2.1,   -1.8,   -1.7,   -1.6,   -1.5,   -1.4,   -1.2,   -1.2,   -1.3,   -1.3,   -1.4,   -1.4,   -1.7,   -1.5,   -1.4,   -1.3,   -1.2,   -1.2,   -1.5,   -1.5,   -1.4,   -1.5,   -1.5,   -1.5,   -1.7,   -1.7,   -1.6,   -1.6,   -1.5,   -1.5,   -1.4,   -1.3,   -1.2,   -1.3,   -1.2,   -1.1,   -1.0,   -1.0,   -1.0
2004/10/30 05:40,   -4.4,   -4.4,   -4.3,   -3.9,   -4.2,   -3.3,   -3.6,   -3.5,   -3.6,   -3.6,   -3.2,   -3.1,   -2.7,   -2.0,   -1.6,   -1.2,   -1.1,   -0.4,   -0.6,   -0.2,  999.0,  999.0,  999.0,   -1.2,   -1.3,   -1.4,   -1.3,   -1.4,   -1.0,   -1.2,   -0.8,   -1.3,   -1.6,   -1.6,   -1.6,   -1.5,   -1.4,   -1.4,   -1.2,   -1.2,   -1.2,   -1.2,   -1.1,   -1.2,   -1.4,   -1.4,   -1.3,   -1.3,   -1.4,   -1.3,   -1.0,   -1.3,   -1.2,   -1.3,   -1.3,   -1.3,   -1.2,   -1.4,   -1.3,   -1.4,   -1.4,   -1.3,   -1.3,   -1.1,   -0.8,   -0.9,   -0.9,   -1.0,   -0.8,   -0.6
2004/10/30 05:50,   -4.5,   -4.5,   -4.3,   -4.0,   -4.8,   -3.6,   -4.7,   -3.9,   -3.7,   -3.6,   -3.1,   -2.5,   -1.7,   -1.1,    0.1,    0.2,    0.5,    0.7,    0.7,    0.8,    0.6,  999.0,   -0.9,   -0.8,   -0.6,   -1.1,   -1.1,   -1.1,   -1.0,   -0.8,   -0.8,   -0.9,   -1.0,   -1.2,   -1.3,   -1.2,   -1.2,   -1.2,   -1.3,   -1.3,   -1.4,   -1.4,   -1.4,   -1.5,   -1.3,   -1.2,   -1.3,   -1.2,   -1.3,   -1.0,   -1.2,   -1.0,   -0.9,   -1.0,   -1.1,   -1.1,   -1.2,   -1.2,   -1.2,   -1.2,   -1.1,   -1.1,   -1.2,   -1.1,   -1.0,   -1.2,   -1.1,  999.0,  999.0,  999.0
2004/10/30 06:00,   -3.2,   -3.0,   -3.0,   -2.7,   -3.0,   -2.8,   -3.3,   -3.7,   -3.5,   -3.6,   -4.2,   -4.0,   -4.1,  999.0,  999.0,  999.0,   -2.8,   -2.7,   -2.7,   -2.5,  999.0,  999.0,   -1.7,   -1.4,   -1.4,   -1.4,   -1.5,   -1.5,   -1.4,   -1.4,   -1.5,   -1.5,   -1.5,   -1.6,   -1.6,   -1.4,   -1.3,   -1.4,   -1.4,   -1.4,   -1.5,   -1.4,   -1.5,   -1.5,   -1.5,   -1.5,   -1.3,   -1.3,   -1.4,   -1.3,   -1.3,   -1.4,   -1.3,   -1.4,   -1.4,   -1.3,   -1.3,   -1.3,   -1.3,   -1.0,   -0.9,   -0.8,   -0.8,   -0.6,   -0.8,   -0.4,   -1.1,  999.0,  999.0,  999.0
2004/10/30 06:10,   -3.3,   -3.2,   -3.2,   -2.7,   -2.8,   -3.1,   -3.1,   -3.0,   -3.0,   -2.8,   -2.6,   -2.2,   -1.4,   -0.6,   -0.4,   -0.5,  999.0,   -1.7,  999.0,  999.0,  999.0,  999.0,   -1.2,   -0.8,   -1.0,   -1.0,   -1.1,   -1.2,   -1.3,   -1.3,   -1.3,   -1.4,   -1.5,   -1.5,   -1.5,   -1.5,   -1.5,   -1.5,   -1.5,   -1.4,   -1.3,   -1.4,   -1.4,   -1.5,   -1.4,   -1.3,   -1.4,   -1.3,   -1.3,   -1.2,   -1.2,   -1.1,   -1.2,   -0.9,   -0.9,   -1.1,   -0.9,   -1.1,   -1.1,   -1.1,   -0.8,   -0.4,   -0.2,  999.0,  999.0,  999.0,  999.0,  999.0,  999.0,  999.0
2004/10/30 06:20,   -2.4,   -2.5,   -2.9,   -2.5,   -2.6,   -2.9,   -2.7,   -2.6,   -2.6,   -2.4,   -2.7,   -2.2,   -1.2,   -0.8,   -0.9,   -0.6,  999.0,   -2.6,   -2.7,   -2.9,   -2.9,   -2.8,   -2.0,   -1.7,   -2.0,   -1.9,   -1.8,   -1.7,   -1.6,   -1.5,   -1.5,   -1.5,   -1.6,   -1.6,   -1.5,   -1.5,   -1.4,   -1.4,   -1.4,   -1.3,   -1.3,   -1.3,   -1.4,   -1.3,   -1.4,   -1.3,   -1.4,   -1.2,   -1.2,   -1.1,   -1.2,   -1.2,   -1.0,   -0.8,   -0.6,   -0.6,   -0.4,   -0.1,   -0.3,   -0.5,   -0.5,   -0.8,   -1.0,   -1.1,   -1.0,   -1.2,   -1.1,   -0.8,   -0.8,   -0.2
2004/10/30 06:30,   -6.1,   -5.6,   -5.6,   -5.5,   -5.5,   -5.4,   -5.2,   -5.2,   -5.1,   -5.0,   -5.2,   -5.0,   -5.1,   -5.5,   -5.3,   -5.0,   -5.1,   -5.7,   -5.5,   -5.5,   -5.3,   -4.3,   -3.2,   -2.4,   -1.8,   -1.7,   -1.7,   -1.6,   -1.5,   -1.4,   -1.3,   -1.3,   -1.3,   -1.2,   -1.3,   -1.3,   -1.3,   -1.3,   -1.4,   -1.5,   -1.4,   -1.5,   -1.7,   -1.5,   -1.4,   -1.3,   -1.3,   -1.4,   -1.3,   -1.2,   -1.2,   -1.3,   -1.3,   -1.2,   -1.1,   -1.0,   -1.0,   -1.0,   -1.0,   -0.9,   -1.0,   -1.0,   -1.6,   -1.5,   -1.5,   -1.4,  999.0,  999.0,  999.0,  999.0
2004/10/30 06:40,   -4.2,   -4.0,   -3.6,   -4.0,   -4.0,   -4.2,   -4.4,   -4.5,   -4.4,   -4.6,   -4.8,   -5.4,   -5.1,   -5.1,   -5.1,   -5.1,   -5.0,   -4.8,   -4.9,   -5.0,   -5.0,   -4.0,   -2.9,   -2.0,   -1.7,   -1.5,   -1.5,   -1.6,   -1.6,   -1.6,   -1.5,   -1.5,   -1.8,   -2.0,   -2.1,   -2.1,   -2.3,   -2.3,   -2.4,   -2.3,   -2.3,   -2.2,   -2.1,   -1.8,   -1.8,   -1.7,   -1.6,   -1.5,   -1.5,   -1.5,   -1.1,   -1.1,   -1.0,   -0.8,   -0.7,   -0.7,   -0.7,  999.0,  999.0,  999.0,  999.0,  999.0,  999.0,  999.0,  999.0,  999.0,  999.0,  999.0,  999.0,  999.0
2004/10/30 06:50,   -3.4,   -3.3,   -4.4,   -4.1,   -4.0,   -4.1,   -4.1,   -4.0,   -4.2,   -4.4,   -4.9,   -5.3,   -5.3,   -5.2,   -5.0,   -5.3,   -5.2,   -5.5,   -5.0,   -4.4,   -3.6,   -3.2,   -2.4,   -2.0,   -2.2,   -2.1,   -2.1,   -2.3,   -2.2,   -2.0,   -1.7,   -1.5,   -1.6,   -1.3,   -1.3,   -1.7,   -1.6,   -2.0,   -2.0,   -1.9,   -1.6,   -1.8,   -1.7,   -1.9,   -1.8,   -1.7,   -1.7,   -1.4,   -1.5,   -1.4,   -1.1,   -0.8,   -1.1,   -1.4,  999.0,  999.0,  999.0,  999.0,  999.0,  999.0,  999.0,   -0.5,  999.0,  999.0,  999.0,  999.0,  999.0,  999.0,  999.0,  999.0
2004/10/30 07:00,   -4.2,   -3.9,   -3.9,   -3.9,   -4.3,   -4.6,   -4.7,   -4.5,   -4.6,   -4.9,   -4.8,   -4.9,   -5.0,   -5.3,   -5.4,   -5.2,   -5.2,   -5.1,   -5.2,   -4.9,   -4.2,   -3.0,   -2.3,   -2.0,   -2.1,   -2.1,   -1.9,   -1.5,   -1.0,   -1.2,   -1.1,   -0.9,   -1.0,   -0.8,   -0.9,   -1.0,   -1.4,   -1.8,   -1.9,   -2.0,   -2.3,   -2.4,   -1.9,   -1.5,   -1.4,   -1.4,   -1.0,   -0.7,   -0.7,   -0.5,   -0.6,  999.0,  999.0,  999.0,  999.0,  999.0,  999.0,  999.0,  999.0,  999.0,  999.0,  999.0,  999.0,    0.0,  999.0,  999.0,    0.0,  999.0,  999.0,  999.0
2004/10/30 07:10,   -5.1,   -5.0,   -4.8,   -4.8,   -4.8,   -4.8,   -4.9,   -4.9,   -4.7,   -4.7,   -4.7,   -4.8,   -4.5,   -4.5,   -4.5,   -4.4,   -4.3,   -4.2,   -4.3,   -4.4,   -4.0,   -3.2,   -2.3,   -1.4,   -1.4,   -1.1,   -1.0,   -1.1,   -1.1,   -1.1,   -1.1,   -1.2,   -1.0,   -1.1,   -1.3,   -1.2,   -1.8,   -1.6,   -1.8,   -1.5,   -1.2,   -1.4,   -1.3,   -0.6,   -0.7,   -0.3,   -0.4,   -0.8,   -0.3,   -0.0,  999.0,  999.0,  999.0,  999.0,  999.0,  999.0,  999.0,  999.0,  999.0,  999.0,  999.0,  999.0,  999.0,  999.0,  999.0,  999.0,  999.0,  999.0,  999.0,  999.0
2004/10/30 07:20,   -3.4,   -3.8,   -3.5,   -3.7,   -3.9,   -4.1,   -4.4,   -4.3,   -4.3,   -4.6,   -4.1,   -4.1,   -4.1,   -4.6,   -4.4,   -3.5,   -3.3,   -3.0,   -3.0,   -3.3,   -3.0,   -3.2,   -2.4,   -1.5,   -1.7,   -1.6,   -1.4,   -1.1,   -0.9,   -0.8,   -0.8,   -0.7,   -0.6,   -0.6,   -0.9,   -0.9,   -1.4,   -1.4,   -1.4,   -1.6,   -1.6,   -1.5,   -1.6,   -1.7,   -1.5,   -1.1,   -0.9,   -0.7,   -0.4,   -0.3,  999.0,  999.0,  999.0,  999.0,  999.0,  999.0,  999.0,  999.0,  999.0,  999.0,  999.0,  999.0,  999.0,  999.0,  999.0,  999.0,  999.0,  999.0,  999.0,  999.0
2004/10/30 07:30,   -2.6,   -1.5,   -3.9,   -4.4,   -2.1,  999.0,  999.0,  999.0,  999.0,   -2.1,   -1.9,   -0.3,   -3.4,   -3.6,   -3.4,   -3.3,   -3.1,   -3.5,   -3.4,   -3.1,   -3.1,   -3.1,   -2.6,   -2.2,   -2.2,   -2.2,   -2.0,   -1.3,   -1.4,   -1.1,   -1.3,   -1.3,   -1.3,   -1.2,   -1.2,   -1.3,   -1.6,   -1.8,   -1.7,   -1.5,   -1.6,   -1.1,   -1.3,   -0.7,   -0.8,   -0.7,  999.0,   -0.2,  999.0,  999.0,  999.0,  999.0,  999.0,  999.0,  999.0,  999.0,  999.0,  999.0,  999.0,  999.0,  999.0,  999.0,  999.0,  999.0,  999.0,  999.0,  999.0,  999.0,  999.0,  999.0
2004/10/30 07:40,   -3.5,   -3.4,   -3.3,   -3.3,   -3.2,   -3.0,   -2.8,   -2.7,   -2.1,   -2.8,  999.0,  999.0,   -2.8,   -3.0,   -3.1,   -2.8,   -2.9,   -2.9,   -3.0,   -3.1,   -3.3,   -3.1,   -2.7,   -1.9,   -1.3,   -1.3,   -1.2,   -1.2,   -1.2,   -1.1,   -1.0,   -1.0,   -1.0,   -1.0,   -1.0,   -0.9,   -0.9,   -0.7,   -0.9,   -0.7,   -0.8,  999.0,   -1.0,  999.0,  999.0,   -0.0,  999.0,  999.0,  999.0,  999.0,  999.0,  999.0,  999.0,  999.0,  999.0,    0.0,  999.0,  999.0,  999.0,   -0.0,   -0.8,   -1.1,   -0.7,  999.0,  999.0,  999.0,  999.0,  999.0,  999.0,  999.0
2004/10/30 07:50,   -2.7,   -2.6,   -2.7,   -2.6,   -2.6,   -2.6,   -2.6,   -2.5,   -2.8,   -2.8,  999.0,  999.0,   -3.1,   -2.6,   -2.5,   -2.3,   -2.5,   -2.5,   -2.6,   -2.5,   -2.3,   -2.3,   -1.8,   -1.2,   -1.1,   -1.1,   -1.1,   -1.0,   -1.1,   -1.1,   -0.9,   -0.7,   -0.7,   -1.0,   -0.7,   -0.8,   -1.1,   -1.3,   -1.1,   -0.8,   -0.5,  999.0,  999.0,  999.0,  999.0,  999.0,  999.0,  999.0,  999.0,  999.0,  999.0,  999.0,  999.0,  999.0,  999.0,  999.0,  999.0,  999.0,  999.0,  999.0,  999.0,  999.0,  999.0,  999.0,  999.0,  999.0,  999.0,  999.0,  999.0,  999.0
2004/10/30 08:00,   -1.8,   -2.1,   -2.1,   -2.1,   -1.9,   -1.9,   -1.2,   -1.3,   -1.4,   -0.7,  999.0,   -3.0,   -2.8,   -2.9,   -2.8,   -2.8,   -2.7,   -2.8,   -2.7,   -2.8,   -2.9,   -2.8,   -2.5,   -1.7,   -1.3,   -1.2,   -1.2,   -1.3,   -1.1,   -1.1,   -1.1,   -1.1,   -1.1,   -1.2,   -1.1,   -1.3,   -1.2,   -1.4,   -1.6,   -1.0,   -0.4,  999.0,  999.0,  999.0,   -1.2,  999.0,  999.0,  999.0,  999.0,  999.0,  999.0,  999.0,  999.0,  999.0,  999.0,  999.0,  999.0,  999.0,  999.0,  999.0,  999.0,  999.0,  999.0,  999.0,  999.0,  999.0,  999.0,  999.0,  999.0,  999.0
2004/10/30 08:10,   -2.7,   -2.5,   -2.5,   -2.3,   -2.5,   -2.5,   -2.0,   -1.4,   -0.8,  999.0,  999.0,   -2.6,   -2.6,   -2.7,   -2.6,   -2.5,   -2.5,   -2.5,   -2.4,   -2.5,   -2.5,   -2.7,   -2.8,   -1.9,   -1.1,   -1.2,   -1.1,   -0.9,   -0.7,   -0.6,   -0.5,   -0.1,    0.3,    0.4,    0.3,  999.0,   -1.0,  999.0,   -1.5,   -1.3,   -0.8,   -0.4,   -0.5,   -0.8,   -0.9,   -0.9,   -0.8,  999.0,   -0.9,  999.0,  999.0,  999.0,  999.0,  999.0,  999.0,   -0.4,  999.0,  999.0,  999.0,  999.0,  999.0,  999.0,  999.0,  999.0,  999.0,  999.0,  999.0,  999.0,  999.0,  999.0
2004/10/30 08:20,   -2.4,   -2.1,   -3.0,   -2.7,   -2.6,   -3.8,   -3.4,   -3.0,   -3.7,   -4.7,   -4.2,   -3.8,   -4.1,   -4.3,   -4.2,   -4.2,   -3.9,   -3.7,   -3.9,   -3.7,   -3.0,   -2.7,   -2.7,   -2.5,   -2.8,   -2.7,   -2.5,   -2.4,   -2.2,   -2.0,   -1.9,   -1.7,   -1.4,   -1.4,   -1.6,   -1.5,   -1.1,   -1.1,   -1.0,   -1.1,   -1.2,   -1.1,   -1.1,   -1.1,   -1.1,   -1.7,   -1.7,   -1.3,   -1.3,   -0.9,   -1.3,   -1.4,   -0.8,   -0.4,   -0.1,  999.0,  999.0,  999.0,  999.0,  999.0,  999.0,  999.0,  999.0,  999.0,  999.0,  999.0,  999.0,  999.0,  999.0,  999.0
2004/10/30 08:30,   -4.3,   -4.2,   -4.0,   -3.5,   -3.6,   -3.9,   -3.7,   -3.7,   -4.1,   -3.7,   -3.7,   -3.6,   -3.7,   -3.8,   -3.6,   -3.4,   -3.2,   -3.2,   -3.2,   -3.4,   -3.1,   -3.0,   -2.1,   -1.6,   -1.5,   -1.4,   -1.3,   -1.2,   -0.9,   -0.7,   -0.7,   -0.7,   -0.8,   -0.7,   -0.8,   -0.9,   -0.8,   -0.9,   -0.8,   -0.5,   -0.3,  999.0,  999.0,  999.0,   -0.2,   -0.2,   -0.2,  999.0,  999.0,  999.0,  999.0,   -0.6,   -0.3,    0.1,  999.0,  999.0,  999.0,  999.0,  999.0,  999.0,  999.0,  999.0,  999.0,  999.0,  999.0,  999.0,  999.0,  999.0,  999.0,  999.0
2004/10/30 08:40,   -3.7,   -3.5,   -3.4,   -3.2,   -3.5,   -3.6,   -3.6,   -3.5,   -3.9,   -4.9,   -4.8,   -4.7,   -4.3,   -4.2,   -4.0,   -3.7,   -3.5,   -3.0,   -2.8,   -2.3,   -2.6,   -2.7,   -1.7,   -0.9,   -0.8,   -0.7,   -1.1,   -1.2,   -1.4,   -1.3,   -1.3,   -1.3,   -1.4,   -1.4,   -1.3,   -1.1,   -1.0,   -1.0,   -1.1,   -1.1,   -0.9,   -1.4,   -1.4,   -1.1,   -1.2,   -1.1,   -1.0,   -1.3,   -1.1,   -1.1,   -1.1,   -0.9,  999.0,  999.0,  999.0,  999.0,   -0.7,  999.0,  999.0,  999.0,  999.0,  999.0,  999.0,  999.0,  999.0,  999.0,  999.0,  999.0,  999.0,  999.0
2004/10/30 08:50,   -7.2,   -7.0,   -4.1,   -4.0,   -4.5,   -5.2,   -5.5,   -6.4,   -6.4,   -6.2,   -6.1,   -5.0,   -4.8,   -4.1,   -4.6,   -4.4,   -4.2,   -4.2,   -4.6,   -4.4,   -4.2,   -3.1,  999.0,  999.0,   -1.9,   -2.1,   -2.1,   -2.2,   -2.1,   -2.1,   -2.0,   -1.9,   -1.8,   -1.8,   -1.8,   -1.7,   -1.6,   -1.5,   -1.5,   -1.5,   -1.3,   -1.3,   -1.1,   -1.2,   -1.2,   -1.1,   -1.0,   -1.0,   -1.0,   -1.1,   -0.8,   -0.9,   -0.8,   -0.8,   -0.6,   -0.1,  999.0,   -0.3,  999.0,   -0.8,  999.0,  999.0,  999.0,  999.0,  999.0,  999.0,  999.0,  999.0,  999.0,  999.0
2004/10/30 09:00,   -5.6,   -5.6,   -5.5,   -5.5,   -5.6,   -5.6,   -5.6,   -5.7,   -5.8,   -5.9,   -5.8,   -5.7,   -5.5,   -5.4,   -5.5,   -5.4,   -5.3,   -5.3,   -5.1,   -5.1,   -4.8,   -3.2,   -2.3,   -1.9,   -2.0,   -1.9,   -1.8,   -1.7,   -1.6,   -1.6,   -1.5,   -1.4,   -1.4,   -1.3,   -1.4,   -1.0,   -1.4,   -1.4,   -1.2,   -1.3,   -1.3,   -1.3,   -1.3,   -1.4,   -1.3,   -1.2,   -1.0,   -1.0,   -0.9,   -0.9,   -0.9,   -1.0,   -0.6,  999.0,   -0.4,  999.0,   -0.3,  999.0,  999.0,  999.0,  999.0,  999.0,  999.0,  999.0,  999.0,  999.0,  999.0,  999.0,  999.0,  999.0
2004/10/30 09:10,   -5.6,   -5.5,   -5.5,   -4.8,   -4.9,   -4.8,   -5.0,   -5.5,   -5.5,   -5.2,   -5.2,   -5.2,   -5.2,   -5.2,   -5.1,   -5.0,   -5.0,   -5.0,   -5.0,   -5.0,   -4.8,   -3.4,  999.0,   -2.3,   -1.9,   -1.7,   -1.6,   -1.5,   -1.5,   -1.5,  999.0,   -1.3,   -1.4,   -1.6,   -1.7,   -1.5,   -1.6,   -1.7,   -1.6,   -1.7,   -1.8,   -1.7,   -2.5,  999.0,  999.0,  999.0,  999.0,   -1.0,  999.0,  999.0,   -0.1,  999.0,   -1.0,   -0.6,   -0.5,   -0.7,  999.0,  999.0,  999.0,   -0.6,   -0.6,   -0.4,   -0.4,  999.0,  999.0,  999.0,  999.0,  999.0,  999.0,  999.0
2004/10/30 09:20,   -5.8,   -5.7,   -5.8,   -5.8,   -5.8,   -5.9,   -6.0,   -6.0,   -6.1,   -6.0,   -5.9,   -5.8,   -5.7,   -5.8,   -5.9,   -6.0,   -5.9,   -5.8,   -5.7,   -5.6,   -5.1,   -4.5,  999.0,   -2.1,   -1.7,   -1.6,   -1.5,   -1.6,   -1.4,   -1.5,   -1.5,   -1.6,   -1.6,   -1.5,   -1.3,   -1.1,   -1.0,   -1.0,   -1.0,   -1.0,   -1.0,   -0.9,   -0.9,   -1.0,   -0.9,  999.0,  999.0,  999.0,   -0.9,   -0.8,   -0.4,   -0.4,   -0.5,   -0.5,   -0.5,   -0.4,   -0.4,   -0.4,   -0.4,   -0.6,   -0.3,   -0.4,   -0.4,   -0.4,  999.0,   -1.3,   -1.2,   -1.4,   -1.2,   -1.1
2004/10/30 09:30,   -4.8,   -4.8,   -4.7,   -4.6,   -4.8,   -4.9,   -4.8,   -4.8,   -4.4,   -3.9,   -4.2,   -4.3,   -4.2,   -3.9,   -3.8,   -3.7,   -3.6,   -3.4,   -3.3,   -3.5,   -3.4,   -3.1,   -2.7,   -2.0,   -1.5,   -1.5,   -1.5,   -1.1,   -1.1,   -1.4,   -1.6,   -1.7,   -1.5,   -1.4,   -1.1,   -1.0,   -1.0,   -0.8,   -0.9,   -1.0,   -1.1,   -1.0,   -1.0,   -1.0,  999.0,  999.0,   -0.8,   -1.0,   -1.1,  999.0,  999.0,   -0.5,   -0.5,  999.0,  999.0,  999.0,  999.0,   -1.0,   -1.2,   -0.8,   -0.9,   -0.7,   -0.8,   -0.9,  999.0,  999.0,  999.0,  999.0,  999.0,  999.0
2004/10/30 09:40,   -4.1,   -3.8,   -4.2,   -4.1,   -4.0,   -3.9,   -3.8,   -3.6,   -3.5,   -3.2,   -4.5,   -4.5,   -4.6,   -4.6,   -4.6,   -4.6,   -4.6,   -4.5,   -4.5,   -4.3,   -4.4,   -4.0,   -3.0,   -1.9,   -1.6,   -1.6,   -1.6,   -1.6,   -1.5,   -1.4,   -1.5,   -1.4,   -1.6,   -1.6,   -1.6,   -1.6,   -1.5,   -1.4,   -1.3,   -1.3,   -1.5,   -1.5,   -1.4,   -1.5,   -0.8,   -1.0,   -1.0,   -0.9,   -0.9,   -0.8,   -0.9,   -0.7,   -0.6,   -1.1,   -1.0,   -0.6,   -0.6,   -0.6,   -0.5,   -0.6,   -0.2,  999.0,   -0.5,  999.0,  999.0,  999.0,  999.0,  999.0,  999.0,  999.0
2004/10/30 09:50,   -7.4,   -7.3,   -7.3,   -7.2,   -7.3,   -7.3,   -7.3,   -7.5,   -7.6,   -7.8,   -7.8,   -7.1,   -7.0,   -7.0,   -7.0,   -7.0,   -7.1,   -7.2,   -7.1,   -6.9,   -6.2,   -4.7,  999.0,  999.0,   -2.2,   -2.1,   -2.0,   -1.9,   -1.7,   -1.4,   -1.2,   -1.4,   -1.5,   -1.5,   -1.6,   -1.6,   -1.9,   -2.2,   -1.8,   -1.8,   -1.7,   -1.7,   -1.7,   -1.7,   -1.5,   -1.5,   -1.3,   -1.2,   -1.2,   -1.2,   -1.1,   -1.1,   -1.0,   -1.3,   -1.5,   -1.5,   -1.5,   -1.4,   -1.4,   -1.0,   -1.3,   -1.6,  999.0,   -1.1,   -1.1,   -2.5,  999.0,  999.0,  999.0,  999.0
2004/10/30 10:00,   -6.4,   -6.4,   -6.5,   -6.7,   -7.1,   -7.2,   -7.4,   -7.4,   -7.2,   -7.3,   -7.1,   -7.2,   -7.1,   -7.1,   -7.1,   -7.0,   -7.0,   -6.9,   -6.9,   -6.9,   -6.8,  999.0,   -4.6,   -2.9,  999.0,  999.0,   -1.8,   -1.7,   -1.7,   -1.5,   -1.4,   -1.4,   -1.4,   -1.5,   -1.5,   -1.5,   -1.5,   -1.5,   -1.7,   -1.6,   -1.4,   -1.5,   -1.4,   -1.4,   -1.3,   -1.3,   -1.4,   -1.2,   -1.3,   -1.0,   -0.9,   -0.9,   -0.6,   -0.5,   -0.1,    0.0,   -0.6,   -0.6,   -0.5,   -0.4,   -0.4,   -0.5,   -0.5,   -0.6,   -0.3,   -0.6,   -0.6,   -1.0,  999.0,  999.0
2004/10/30 10:10,   -6.0,   -6.1,   -6.1,   -6.1,   -6.3,   -6.4,   -6.5,   -6.6,   -7.3,   -7.3,   -7.2,   -7.2,   -7.1,   -7.1,   -6.9,   -6.8,   -6.8,   -6.8,   -6.8,   -6.7,   -6.5,   -5.2,  999.0,  999.0,   -1.7,   -1.6,   -1.6,   -1.6,   -1.5,   -1.4,   -1.4,   -1.4,   -1.4,   -1.3,   -1.2,   -1.5,   -1.5,   -1.2,   -1.3,   -1.3,   -1.7,   -1.4,   -1.1,   -1.2,   -1.0,   -0.9,  999.0,  999.0,   -1.6,   -1.6,  999.0,  999.0,  999.0,  999.0,  999.0,  999.0,  999.0,  999.0,  999.0,  999.0,  999.0,  999.0,  999.0,  999.0,  999.0,  999.0,  999.0,  999.0,  999.0,  999.0
2004/10/30 10:20,   -6.7,   -6.8,   -6.9,   -7.0,   -6.8,   -7.1,   -7.2,   -7.3,   -7.2,   -7.3,   -7.3,   -7.3,   -6.7,   -7.5,   -6.6,   -6.5,   -6.4,   -6.4,   -6.0,   -6.0,   -5.7,   -4.3,  999.0,  999.0,   -1.8,   -1.8,   -1.7,   -1.6,   -1.5,   -1.4,   -1.4,   -1.5,   -1.5,   -1.4,   -1.4,   -1.5,   -1.5,   -1.4,   -1.1,   -0.8,   -0.9,   -0.8,   -0.9,   -0.9,   -1.1,   -0.9,   -1.0,   -1.1,   -0.7,  999.0,  999.0,  999.0,   -1.1,   -0.9,   -1.4,   -1.4,   -0.8,  999.0,  999.0,  999.0,  999.0,  999.0,  999.0,  999.0,  999.0,  999.0,  999.0,  999.0,  999.0,  999.0
2004/10/30 10:30,   -5.1,   -4.9,   -5.1,   -5.3,   -5.6,   -5.6,   -5.6,   -5.4,   -5.3,   -5.2,   -5.1,   -5.2,   -5.1,   -5.0,   -5.0,   -5.0,   -5.0,   -5.0,   -5.0,   -4.9,   -4.9,   -4.0,   -2.3,  999.0,   -1.7,   -1.7,   -1.6,   -1.6,   -1.5,   -1.5,   -1.4,   -1.3,   -1.3,   -1.2,   -1.3,   -1.5,   -1.5,   -1.5,   -1.5,   -1.0,   -0.8,   -0.9,   -1.3,   -1.3,   -1.3,   -1.1,   -1.2,   -1.1,   -1.2,   -1.2,   -1.2,   -1.3,   -1.1,   -1.2,   -1.1,   -1.0,   -0.9,   -0.9,   -0.8,   -0.7,   -0.5,   -0.4,   -0.6,   -0.3,   -0.5,   -1.1,   -0.2,   -0.7,  999.0,  999.0
2004/10/30 10:40,   -6.2,   -5.8,   -5.8,   -6.1,   -6.0,   -5.9,   -5.9,   -6.1,   -6.2,   -6.2,   -6.3,   -6.4,   -6.2,   -6.2,   -6.2,   -6.5,   -6.5,   -6.4,   -6.4,   -6.0,   -6.0,   -4.2,  999.0,   -1.9,   -1.8,   -1.7,   -1.6,   -1.5,   -1.5,   -1.5,   -1.4,   -1.4,   -1.4,   -1.4,   -1.4,   -1.3,   -1.7,   -1.6,   -1.8,   -2.0,   -2.1,   -2.0,   -1.4,   -1.3,   -1.3,   -1.2,   -1.0,   -1.0,   -1.0,   -1.1,   -1.1,   -1.1,   -1.1,   -0.9,   -0.9,   -0.9,   -0.8,   -0.7,   -0.2,   -0.1,   -0.4,   -0.7,   -0.7,   -0.6,   -0.1,    0.3,    0.7,  999.0,  999.0,  999.0
2004/10/30 10:50,   -5.1,   -5.1,   -5.1,   -5.0,   -5.0,   -5.0,   -5.0,   -5.1,   -5.2,   -5.3,   -5.4,   -5.5,   -5.6,   -5.6,   -5.6,   -5.6,   -5.6,   -5.6,   -5.5,   -5.5,   -5.3,   -4.5,   -3.5,   -2.3,   -2.0,   -1.8,   -1.7,   -1.8,   -1.7,   -1.7,   -1.7,   -1.5,   -1.6,   -1.5,   -1.5,   -1.4,   -1.5,   -1.7,   -1.9,   -1.9,   -1.5,   -1.4,   -1.2,   -1.1,   -1.0,   -1.1,   -0.9,   -0.8,   -0.6,   -0.4,   -0.5,   -0.8,   -0.6,   -1.0,   -0.8,   -0.8,   -1.0,   -0.4,   -0.3,   -0.5,   -1.1,   -0.9,  999.0,  999.0,  999.0,  999.0,  999.0,  999.0,  999.0,  999.0
2004/10/30 11:00,   -4.8,   -5.2,   -5.1,   -5.0,   -4.7,   -4.8,   -4.9,   -4.8,   -4.9,   -4.9,   -4.9,   -4.9,   -5.0,   -5.0,   -5.1,   -4.9,   -4.8,   -4.7,   -4.6,   -4.5,   -4.5,   -4.3,   -3.5,   -2.6,   -2.1,   -2.0,   -2.0,   -1.9,   -1.8,   -1.8,   -1.8,   -1.8,   -1.7,   -1.6,   -1.6,   -1.5,   -1.6,   -1.6,   -1.6,   -1.5,   -1.3,   -1.2,   -1.0,   -1.1,   -1.0,   -0.8,   -0.8,   -0.9,   -0.6,   -0.8,   -0.9,   -0.9,   -0.6,    0.1,   -0.2,  999.0,  999.0,  999.0,  999.0,  999.0,  999.0,  999.0,  999.0,  999.0,  999.0,  999.0,  999.0,  999.0,  999.0,  999.0
2004/10/30 11:10,   -4.7,   -4.5,   -4.5,   -4.5,   -4.5,   -4.2,   -4.1,   -4.2,   -4.3,   -4.3,   -4.3,   -4.3,   -4.4,   -4.6,   -4.8,   -4.7,   -4.6,   -4.5,   -4.5,   -4.4,   -4.4,   -4.3,   -4.2,   -3.5,   -2.5,   -2.1,   -2.2,   -2.1,   -2.0,   -2.0,   -1.9,   -1.7,   -1.8,   -1.8,   -1.7,   -1.6,   -1.7,   -1.6,   -1.3,   -0.7,   -0.6,  999.0,  999.0,  999.0,  999.0,  999.0,  999.0,  999.0,  999.0,  999.0,  999.0,  999.0,  999.0,  999.0,  999.0,  999.0,  999.0,  999.0,  999.0,  999.0,  999.0,  999.0,  999.0,  999.0,  999.0,  999.0,  999.0,  999.0,  999.0,  999.0
2004/10/30 11:20,   -4.4,   -4.2,   -4.2,   -4.1,   -4.0,   -4.0,   -4.0,   -3.9,   -3.9,   -4.3,   -4.4,   -4.6,   -4.7,   -4.6,   -4.5,   -4.5,   -4.5,   -4.5,   -4.4,   -4.4,   -4.4,   -4.3,   -4.4,   -3.2,   -2.0,   -1.6,   -1.5,   -1.5,   -1.4,   -1.4,   -1.5,   -1.5,   -1.5,   -1.4,   -1.5,   -1.5,   -1.6,   -1.4,   -1.2,   -0.8,   -0.7,   -0.9,  999.0,  999.0,  999.0,  999.0,   -0.7,  999.0,  999.0,   -0.8,  999.0,   -0.6,   -0.6,   -0.5,   -0.3,   -0.4,   -0.9,   -1.2,   -1.1,  999.0,  999.0,  999.0,  999.0,  999.0,  999.0,  999.0,  999.0,  999.0,  999.0,  999.0
2004/10/30 11:30,   -5.1,   -4.9,   -4.7,   -5.3,   -5.2,   -5.3,   -5.4,   -5.4,   -5.3,   -5.3,   -5.6,   -5.7,   -6.0,   -5.8,   -5.8,   -5.8,   -5.8,   -5.9,   -6.0,   -6.0,   -5.9,   -5.1,   -4.4,   -3.5,   -2.7,   -2.2,   -2.4,   -2.4,   -2.2,   -2.1,   -2.1,   -2.1,   -2.1,   -2.0,   -1.9,   -1.4,   -1.4,   -1.2,   -1.4,   -1.4,   -1.2,   -1.4,  999.0,  999.0,   -1.3,  999.0,  999.0,   -0.9,   -0.8,   -0.6,  999.0,  999.0,  999.0,  999.0,  999.0,  999.0,  999.0,  999.0,  999.0,  999.0,  999.0,  999.0,  999.0,  999.0,  999.0,  999.0,  999.0,  999.0,  999.0,  999.0
2004/10/30 11:40,   -4.4,   -4.4,   -4.4,   -4.3,   -4.3,   -4.4,   -4.3,   -3.2,   -3.3,   -3.2,   -3.3,   -3.2,   -3.3,   -3.6,   -3.6,   -3.7,   -3.6,   -3.7,   -3.3,   -3.2,   -3.3,   -3.3,   -3.5,   -3.6,   -3.3,   -2.6,   -1.8,   -1.5,   -1.6,   -1.6,   -1.7,   -1.7,   -1.6,   -1.6,   -1.4,   -1.7,   -1.8,   -1.8,   -1.7,   -1.4,   -1.3,   -0.8,   -0.6,   -0.4,   -0.4,   -0.4,   -0.1,   -0.3,  999.0,  999.0,  999.0,  999.0,  999.0,  999.0,  999.0,  999.0,  999.0,  999.0,  999.0,  999.0,  999.0,  999.0,  999.0,  999.0,  999.0,  999.0,  999.0,  999.0,  999.0,  999.0
2004/10/30 11:50,   -3.9,   -3.8,   -4.1,   -4.0,   -4.4,   -4.5,   -5.2,   -4.6,   -4.7,   -4.8,   -4.8,   -4.5,   -4.8,   -5.0,   -4.8,   -4.7,   -4.4,   -4.2,   -3.8,   -4.0,   -3.9,   -3.9,   -3.9,   -3.8,   -3.5,   -2.8,   -2.2,   -2.0,   -2.0,   -2.0,   -1.9,   -1.8,   -1.8,   -1.9,   -2.0,   -1.8,   -1.7,   -1.8,   -1.3,   -1.0,   -1.2,   -0.7,   -0.6,   -0.5,   -0.3,   -0.3,   -0.0,   -0.3,   -0.4,   -0.8,   -0.6,   -1.1,   -1.2,   -1.1,  999.0,   -1.5,  999.0,  999.0,  999.0,  999.0,  999.0,  999.0,  999.0,  999.0,  999.0,  999.0,  999.0,  999.0,  999.0,  999.0
2004/10/30 12:00,   -4.3,   -4.1,   -4.0,   -4.2,   -4.2,   -4.4,   -4.4,   -4.5,   -4.5,   -4.5,   -4.5,   -4.4,   -4.5,   -4.6,   -4.6,   -4.6,   -4.5,   -4.5,   -4.4,   -4.4,   -4.3,   -4.3,   -4.3,   -4.4,   -3.8,   -2.7,  999.0,   -1.6,   -1.6,   -1.6,   -1.4,   -1.4,   -1.6,   -1.2,   -1.2,   -1.1,   -1.0,   -0.8,   -0.8,   -0.9,   -1.0,   -1.0,   -1.0,   -0.8,   -0.8,   -1.0,   -1.1,   -0.9,   -1.0,   -1.0,   -0.8,   -0.6,   -0.6,   -0.4,   -0.4,   -0.4,  999.0,  999.0,  999.0,  999.0,  999.0,  999.0,  999.0,  999.0,  999.0,  999.0,  999.0,  999.0,  999.0,  999.0
2004/10/30 12:10,   -4.0,   -4.9,   -4.7,   -4.6,   -4.1,   -4.0,   -4.1,   -4.2,   -3.4,   -4.1,   -3.3,   -3.2,   -3.3,   -3.2,   -3.8,   -3.5,   -3.4,   -3.5,   -3.5,   -3.4,   -3.6,   -3.5,   -3.5,   -3.6,   -3.5,   -2.8,   -2.1,   -2.0,   -2.1,   -2.0,   -1.9,   -2.0,   -1.8,   -1.7,   -1.7,   -1.4,   -1.3,   -1.3,   -1.1,   -0.8,   -0.7,   -1.3,   -1.0,   -0.7,   -0.6,   -0.9,   -1.0,   -1.3,   -0.9,   -0.1,   -0.9,  999.0,  999.0,  999.0,  999.0,  999.0,  999.0,  999.0,  999.0,  999.0,  999.0,  999.0,  999.0,  999.0,  999.0,  999.0,  999.0,  999.0,  999.0,  999.0
2004/10/30 12:20,   -4.1,   -4.2,   -4.2,   -4.4,   -4.4,   -4.3,   -3.4,   -4.7,   -4.9,   -4.9,   -5.0,   -5.1,   -5.1,   -5.0,   -5.0,   -5.0,   -5.0,   -5.0,   -5.2,   -5.4,   -5.6,   -5.7,   -5.8,   -5.7,   -4.9,   -3.3,   -2.5,  999.0,   -1.9,   -1.9,   -1.8,   -1.6,   -1.5,   -1.5,   -1.1,   -1.1,   -1.0,   -1.0,   -1.2,   -1.1,   -1.1,   -1.0,   -0.8,   -0.7,   -0.6,   -0.9,   -0.7,   -0.8,   -0.7,   -0.3,   -0.7,   -0.7,   -1.0,  999.0,  999.0,  999.0,   -1.1,   -1.2,   -1.1,   -1.0,   -0.7,  999.0,   -0.7,   -0.6,  999.0,  999.0,  999.0,  999.0,  999.0,  999.0
2004/10/30 12:30,   -6.5,   -6.4,   -6.3,   -6.3,   -6.4,   -6.4,   -6.5,   -6.6,   -6.6,   -6.7,   -6.6,   -6.5,   -6.4,   -6.3,   -6.2,   -6.0,   -5.8,   -5.8,   -6.0,   -6.2,   -6.3,   -6.0,   -6.0,   -5.9,   -5.0,   -3.4,   -2.4,   -1.8,   -1.7,   -1.7,   -1.7,   -1.6,   -1.7,   -1.7,   -1.7,   -1.6,   -1.6,   -1.5,   -1.2,   -1.2,   -1.1,   -1.0,   -1.0,   -0.9,   -1.0,   -1.1,   -0.9,   -0.8,   -0.9,   -0.9,   -0.9,   -0.9,   -1.1,   -1.0,   -1.0,   -1.0,   -0.9,   -0.7,    0.1,    0.4,   -0.2,   -0.4,   -0.7,  999.0,  999.0,  999.0,  999.0,  999.0,  999.0,  999.0
2004/10/30 12:40,   -6.1,   -6.1,   -6.1,   -6.1,   -6.0,   -6.1,   -5.9,   -6.0,   -6.0,   -6.1,   -5.7,   -5.8,   -5.9,   -6.0,   -6.0,   -6.1,   -6.1,   -6.2,   -6.2,   -6.3,   -6.4,   -6.4,   -6.5,   -6.2,   -5.1,   -3.8,   -2.8,   -2.4,   -2.5,   -2.4,   -2.3,   -2.2,   -2.0,   -1.8,   -1.7,   -1.6,   -1.6,   -1.2,   -1.3,   -1.3,   -1.2,   -1.3,   -1.3,   -1.3,   -1.3,   -1.3,   -1.2,   -1.2,   -1.1,   -1.1,   -0.9,   -1.0,   -1.0,   -1.0,   -0.9,   -0.8,   -0.9,   -0.6,   -0.4,   -0.5,    0.7,    0.3,    0.4,  999.0,  999.0,  999.0,  999.0,  999.0,  999.0,  999.0
2004/10/30 12:50,   -6.2,   -6.0,   -6.1,   -6.2,   -6.2,   -6.3,   -6.5,   -6.3,   -6.6,   -6.6,   -6.6,   -6.7,   -6.4,   -6.6,   -6.5,   -6.3,   -6.7,   -6.9,   -6.8,   -6.4,   -6.7,   -6.8,   -6.8,   -6.5,   -5.6,   -4.4,   -3.5,   -2.6,   -2.2,   -2.1,   -2.0,   -2.0,   -1.8,   -1.8,   -1.7,   -1.4,   -1.2,   -1.2,   -1.2,   -1.1,   -1.3,   -1.2,   -1.1,   -1.1,   -1.2,   -1.1,   -1.1,   -1.0,   -0.8,   -0.6,   -0.4,   -0.1,   -0.3,   -0.2,    0.3,    0.3,    0.3,  999.0,  999.0,   -0.2,  999.0,  999.0,  999.0,  999.0,  999.0,  999.0,  999.0,  999.0,  999.0,  999.0
2004/10/30 13:00,   -5.7,   -5.8,   -6.3,   -6.1,   -5.9,   -5.4,   -5.4,   -5.2,   -5.4,   -5.8,   -5.8,   -5.8,   -5.9,   -5.8,   -5.7,   -5.8,   -5.8,   -5.6,   -5.6,   -5.7,   -5.6,   -5.6,   -5.6,   -5.5,   -5.3,   -4.5,   -3.5,   -2.5,   -2.1,   -1.8,   -1.6,   -1.5,   -1.6,   -1.5,   -1.5,   -1.5,   -1.5,   -1.3,   -1.5,   -1.4,   -1.3,   -1.4,   -1.5,   -1.4,   -1.6,   -1.5,   -1.1,   -0.9,   -0.7,   -0.9,   -0.8,   -1.1,   -0.9,   -0.6,   -0.5,   -0.6,   -0.6,  999.0,  999.0,  999.0,  999.0,  999.0,  999.0,  999.0,  999.0,  999.0,  999.0,  999.0,  999.0,  999.0
2004/10/30 13:10,   -5.4,   -5.3,   -5.3,   -5.2,   -5.4,   -5.4,   -5.4,   -5.3,   -5.8,   -5.8,   -6.0,   -5.9,   -6.1,   -5.9,   -6.4,   -6.4,   -6.2,   -6.2,   -6.8,   -6.7,   -6.7,   -6.8,   -6.8,   -6.7,   -5.8,   -4.7,   -3.8,   -3.2,   -2.7,   -2.5,   -2.4,   -2.2,   -2.0,   -1.9,   -1.7,   -1.5,   -1.3,   -1.4,   -1.4,   -1.3,   -1.2,   -1.1,   -0.7,   -1.6,   -1.0,   -1.0,   -1.3,   -1.6,   -1.7,   -1.4,   -1.6,   -1.4,   -1.1,   -0.9,  999.0,   -0.6,   -0.3,   -0.4,  999.0,  999.0,  999.0,  999.0,  999.0,  999.0,  999.0,  999.0,  999.0,  999.0,  999.0,  999.0
2004/10/30 13:20,   -2.9,  999.0,  999.0,   -2.5,   -2.4,  999.0,   -3.9,   -3.6,   -5.5,   -3.7,   -4.7,   -4.1,   -4.3,   -4.4,   -4.5,   -4.6,   -4.7,   -4.7,   -4.7,   -4.7,   -4.8,   -4.5,   -4.6,   -5.0,   -5.1,   -4.9,   -3.4,   -2.7,  999.0,   -2.2,   -2.3,   -2.2,   -1.8,   -1.7,   -1.4,   -1.5,   -1.1,   -0.8,   -0.8,   -0.7,   -0.5,   -0.5,   -0.5,   -0.7,   -1.4,   -1.4,   -1.6,   -1.4,   -1.3,   -1.1,   -1.1,   -1.1,  999.0,  999.0,  999.0,  999.0,  999.0,  999.0,  999.0,  999.0,  999.0,  999.0,  999.0,  999.0,  999.0,  999.0,  999.0,  999.0,  999.0,  999.0
2004/10/30 13:30,   -5.3,   -5.4,   -5.5,   -5.1,   -5.0,   -5.6,   -5.9,   -5.8,   -5.9,   -5.9,   -5.7,   -5.8,   -5.9,   -5.7,   -6.1,   -6.1,   -6.2,   -6.5,   -6.7,   -6.8,   -6.9,   -7.0,   -7.0,   -7.0,   -7.0,   -6.1,  999.0,  999.0,  999.0,   -3.0,   -2.6,   -2.5,   -2.4,   -2.1,   -1.7,   -1.3,   -1.1,   -0.9,   -1.2,   -1.2,   -1.1,   -1.1,   -1.3,   -1.2,   -1.1,   -0.9,   -0.9,   -1.0,   -0.9,   -0.9,   -1.1,   -1.0,   -0.9,  999.0,  999.0,  999.0,  999.0,  999.0,  999.0,  999.0,  999.0,  999.0,  999.0,  999.0,  999.0,  999.0,  999.0,  999.0,  999.0,  999.0
2004/10/30 13:40,   -5.3,   -5.0,   -4.7,   -4.6,   -4.2,   -4.3,   -4.7,   -4.4,   -4.6,   -4.6,   -4.6,   -5.1,   -4.5,   -4.8,  999.0,  999.0,   -4.7,   -5.0,   -5.0,   -5.0,   -4.9,   -5.0,   -4.7,   -4.6,   -4.5,   -4.2,   -3.9,   -2.8,   -2.4,   -2.0,   -2.2,   -2.1,   -1.9,   -1.7,   -1.5,   -1.1,   -1.0,   -1.0,   -0.9,   -0.8,   -0.6,   -0.4,   -0.3,   -0.4,   -0.3,   -0.6,   -0.7,   -1.2,   -1.0,  999.0,  999.0,  999.0,  999.0,  999.0,  999.0,  999.0,  999.0,  999.0,  999.0,  999.0,  999.0,  999.0,  999.0,  999.0,  999.0,  999.0,  999.0,  999.0,  999.0,  999.0
2004/10/30 13:50,   -4.1,   -4.1,   -4.1,   -4.2,   -4.9,   -4.9,   -5.3,   -5.4,   -5.4,   -5.1,   -5.5,   -5.4,   -5.7,   -6.1,   -5.1,   -5.3,   -5.2,   -5.0,   -4.8,   -4.6,   -4.6,   -4.8,   -4.8,   -4.6,   -4.4,   -4.2,   -3.7,   -2.6,   -1.9,   -1.7,   -1.7,   -1.6,   -1.5,   -1.5,   -1.4,   -1.2,   -1.1,   -0.8,   -0.5,   -0.3,    0.0,   -0.1,   -0.3,   -0.3,   -0.3,   -0.6,   -0.4,   -0.2,  999.0,  999.0,  999.0,   -0.3,  999.0,  999.0,  999.0,  999.0,  999.0,  999.0,  999.0,  999.0,  999.0,  999.0,  999.0,  999.0,  999.0,  999.0,  999.0,  999.0,  999.0,  999.0
2004/10/30 14:00,   -4.3,   -3.9,   -3.4,   -3.6,   -3.6,   -3.5,   -3.5,   -3.5,   -3.5,   -3.3,   -3.3,   -3.2,   -3.5,   -3.5,   -3.3,   -3.1,   -3.1,   -2.3,   -2.1,   -1.8,   -2.4,   -2.1,   -2.5,   -3.0,   -3.0,   -3.1,   -3.0,   -2.4,   -1.8,   -1.6,   -1.6,   -1.5,   -1.5,   -1.3,   -1.3,   -1.2,   -1.0,   -1.0,   -0.9,   -0.6,   -0.4,   -0.4,   -0.3,   -0.4,   -0.6,   -0.5,  999.0,  999.0,  999.0,  999.0,   -1.0,   -0.8,  999.0,  999.0,  999.0,  999.0,  999.0,  999.0,  999.0,  999.0,  999.0,  999.0,  999.0,  999.0,  999.0,  999.0,  999.0,  999.0,  999.0,  999.0
2004/10/30 14:10,   -2.5,   -2.4,   -2.2,   -2.1,   -2.0,   -2.0,   -2.1,   -2.0,   -1.8,   -1.7,   -1.8,   -1.9,   -1.8,   -1.8,   -1.8,   -1.8,   -1.7,   -1.7,   -1.6,   -1.7,   -1.2,   -1.2,   -1.3,   -2.5,   -2.8,   -2.6,   -3.0,   -2.8,   -2.2,   -1.9,   -1.8,   -1.9,   -2.1,   -2.0,   -1.8,   -1.5,   -1.5,   -1.5,   -1.3,   -1.3,  999.0,  999.0,   -0.4,   -0.5,   -1.2,   -1.3,   -1.4,   -1.4,   -1.0,   -0.3,  999.0,  999.0,  999.0,   -1.0,  999.0,  999.0,  999.0,  999.0,  999.0,  999.0,  999.0,  999.0,  999.0,  999.0,  999.0,  999.0,  999.0,  999.0,  999.0,  999.0
2004/10/30 14:20,   -2.2,   -2.3,   -2.3,   -2.2,   -1.9,   -1.9,   -1.8,   -1.9,   -1.9,   -1.8,   -1.8,   -1.7,   -3.1,   -3.0,   -2.5,   -1.7,   -2.4,   -2.3,   -2.0,   -1.6,   -1.4,   -0.4,   -0.4,   -1.0,   -1.6,   -2.2,   -2.2,   -2.6,  999.0,   -1.2,   -1.5,   -1.4,   -1.4,   -1.5,   -1.4,   -1.2,   -1.2,   -1.1,   -0.8,   -0.4,   -0.3,   -0.4,  999.0,   -0.5,  999.0,  999.0,  999.0,  999.0,  999.0,  999.0,  999.0,  999.0,  999.0,  999.0,  999.0,  999.0,  999.0,  999.0,  999.0,  999.0,  999.0,  999.0,  999.0,  999.0,  999.0,  999.0,  999.0,  999.0,  999.0,  999.0
2004/10/30 14:30,   -1.9,   -1.9,   -1.8,   -1.7,   -1.6,   -1.5,   -1.5,   -1.6,   -1.6,   -1.7,   -1.6,   -1.5,   -1.5,   -1.5,   -1.4,   -1.3,   -1.3,   -1.3,   -1.0,   -0.8,   -0.8,   -0.6,   -0.9,   -1.1,   -1.3,   -1.5,   -1.8,   -2.1,   -1.7,   -1.4,   -1.5,   -1.3,   -1.2,   -1.0,   -1.0,   -0.8,   -0.5,   -0.5,   -0.5,   -0.5,   -0.3,   -0.4,  999.0,   -0.3,  999.0,  999.0,  999.0,  999.0,  999.0,  999.0,  999.0,  999.0,  999.0,  999.0,  999.0,  999.0,  999.0,  999.0,  999.0,  999.0,  999.0,  999.0,  999.0,  999.0,  999.0,  999.0,  999.0,  999.0,  999.0,  999.0
2004/10/30 14:40,   -1.6,   -1.6,   -1.6,   -1.6,   -1.3,   -1.2,   -1.2,   -1.4,   -1.5,   -1.5,   -1.5,   -1.6,   -1.6,   -1.5,   -1.6,   -1.5,   -1.7,   -1.6,   -1.7,   -1.5,   -1.7,   -1.8,   -1.8,   -1.9,   -1.9,   -2.0,   -2.0,   -2.0,   -2.1,   -1.6,   -1.5,   -1.3,   -1.2,   -1.0,   -0.8,   -0.8,   -0.5,   -0.4,   -0.2,   -0.2,  999.0,  999.0,  999.0,  999.0,  999.0,  999.0,  999.0,  999.0,  999.0,  999.0,  999.0,  999.0,    0.0,  999.0,  999.0,  999.0,  999.0,  999.0,  999.0,  999.0,  999.0,  999.0,  999.0,  999.0,  999.0,  999.0,  999.0,  999.0,  999.0,  999.0
2004/10/30 14:50,   -4.1,   -3.8,   -3.7,   -2.8,   -2.5,   -2.3,   -2.4,   -2.1,   -2.1,   -2.0,   -1.9,   -2.0,   -2.0,   -1.8,   -1.6,   -1.9,   -1.9,   -1.7,   -1.7,   -1.6,   -1.5,   -1.4,   -1.4,   -1.2,   -1.2,   -1.0,   -0.8,   -2.0,   -2.2,   -1.6,   -1.4,   -1.4,   -1.4,   -1.3,   -1.2,   -1.1,   -1.2,   -1.3,   -1.5,   -1.1,   -1.4,   -1.3,   -1.3,   -1.1,   -0.9,   -0.8,   -0.6,   -0.5,   -0.5,   -0.4,   -0.1,  999.0,   -0.9,   -0.8,   -0.7,   -0.9,   -1.0,   -1.1,   -1.2,   -1.2,   -1.3,  999.0,  999.0,  999.0,  999.0,  999.0,  999.0,  999.0,  999.0,  999.0
2004/10/30 15:00,   -3.1,   -4.5,   -4.4,   -4.1,   -4.8,   -4.7,   -4.6,   -4.5,   -4.1,   -4.1,   -4.3,   -4.7,   -4.4,   -4.2,   -4.1,   -3.8,   -3.3,   -3.2,   -3.2,   -3.7,   -3.4,   -3.4,   -3.3,   -3.3,   -3.4,   -3.3,   -3.4,   -3.3,   -2.7,   -2.1,   -2.0,   -1.6,   -1.6,   -1.2,   -1.3,   -1.3,   -1.4,   -1.2,   -1.3,   -1.2,   -1.4,   -1.4,   -1.3,   -1.3,   -1.4,   -1.4,   -1.3,   -1.2,   -1.2,   -1.0,   -0.9,   -0.8,   -0.8,   -0.8,   -0.8,   -1.0,   -1.0,   -1.0,   -1.0,   -1.0,   -1.0,   -0.9,   -1.0,   -0.9,   -1.1,  999.0,  999.0,  999.0,  999.0,  999.0
2004/10/30 15:10,   -5.1,   -4.7,   -4.5,   -4.3,   -4.9,   -4.3,   -4.1,   -3.9,   -3.7,   -3.9,   -3.6,   -3.3,   -3.0,   -3.1,   -3.3,   -3.0,   -3.2,   -3.2,   -2.8,   -2.8,   -4.0,   -3.5,   -3.5,   -3.6,   -3.7,   -3.5,   -3.3,   -3.3,   -2.4,   -1.8,   -2.0,   -1.9,   -1.7,   -1.4,   -1.5,   -1.6,   -1.4,   -1.5,   -1.4,   -1.2,   -1.2,   -1.3,   -1.4,   -1.3,   -1.3,   -1.1,   -1.1,   -1.2,   -1.1,   -1.1,   -1.0,   -1.1,   -0.7,   -0.6,   -0.9,   -1.4,   -1.7,   -1.5,   -1.0,   -0.6,  999.0,  999.0,  999.0,  999.0,  999.0,  999.0,  999.0,  999.0,  999.0,  999.0
2004/10/30 15:20,   -3.7,   -3.7,   -3.7,   -3.4,   -3.3,   -3.3,   -3.1,   -3.1,   -5.0,   -4.8,   -4.8,   -4.3,   -4.7,   -5.9,   -4.4,   -5.3,   -3.7,   -4.6,   -3.7,   -3.4,   -3.0,   -3.9,   -5.1,   -5.0,   -5.5,   -5.0,   -4.3,   -3.7,   -3.0,   -2.4,   -1.9,   -1.6,   -1.4,   -1.4,   -1.4,   -1.3,   -1.1,   -1.0,   -0.8,   -1.2,   -1.0,   -1.1,   -1.2,   -1.0,   -1.1,   -1.1,   -0.8,   -1.0,   -0.8,   -1.0,   -1.0,   -0.9,   -1.0,   -0.9,   -0.9,   -0.7,   -0.7,   -0.8,   -0.9,   -0.7,   -0.6,   -0.7,   -0.5,   -0.2,  999.0,  999.0,  999.0,  999.0,  999.0,  999.0
2004/10/30 15:30,   -6.0,   -6.4,   -6.4,   -6.3,   -5.9,   -5.9,   -6.0,   -6.0,   -5.9,   -5.9,   -6.0,   -6.1,   -6.1,   -6.2,   -6.1,   -6.0,   -5.8,   -5.8,   -5.7,   -5.5,   -5.5,   -5.3,   -5.2,   -5.1,   -5.0,   -4.9,   -4.5,   -3.6,   -2.2,   -2.1,   -1.9,   -1.8,   -1.6,   -1.3,   -1.4,   -1.5,   -1.1,   -1.3,   -1.2,   -1.2,   -1.1,   -1.0,   -1.0,   -0.7,   -0.6,   -0.4,   -0.3,   -0.3,   -0.3,   -0.6,   -0.7,   -0.9,   -1.5,   -0.8,   -1.2,   -1.1,   -1.4,   -1.3,   -0.8,   -0.9,   -0.8,   -0.5,    0.3,  999.0,  999.0,  999.0,  999.0,  999.0,  999.0,  999.0
2004/10/30 15:40,   -5.6,   -5.5,   -5.6,   -5.7,   -5.7,   -5.8,   -5.8,   -5.9,   -6.0,   -5.9,   -5.9,   -6.4,   -6.2,   -6.3,   -6.1,   -6.0,   -5.9,   -5.8,   -5.7,   -5.6,   -5.5,   -5.5,   -5.5,   -5.5,   -5.1,   -4.0,   -3.5,   -3.1,   -2.7,   -2.1,   -1.6,   -1.3,   -0.9,   -0.7,   -0.7,   -1.0,   -0.9,   -0.6,   -0.3,   -0.1,   -0.0,    0.3,   -0.4,   -0.6,    0.0,    0.3,    0.5,  999.0,  999.0,   -1.4,   -1.5,   -1.7,   -1.5,   -1.7,   -1.8,   -1.5,   -1.4,   -1.2,   -1.2,   -1.1,   -1.2,   -1.0,  999.0,  999.0,  999.0,  999.0,  999.0,  999.0,  999.0,  999.0
2004/10/30 15:50,   -4.2,   -4.0,   -4.0,   -3.8,   -3.6,   -3.4,   -3.3,   -3.2,   -3.1,   -3.1,   -3.0,   -3.3,   -3.2,   -3.1,   -3.2,   -3.2,   -3.1,   -3.0,  999.0,   -4.0,   -3.1,   -3.2,   -5.8,   -4.1,   -5.8,   -4.1,   -4.2,   -3.1,   -2.4,   -1.9,   -1.8,   -1.9,   -1.7,   -1.6,   -1.5,   -1.6,   -1.3,   -1.3,   -1.0,   -1.0,   -1.0,   -1.3,   -1.3,   -1.2,   -0.8,   -0.9,   -0.9,  999.0,  999.0,  999.0,  999.0,  999.0,  999.0,  999.0,  999.0,  999.0,  999.0,  999.0,  999.0,  999.0,  999.0,  999.0,  999.0,  999.0,  999.0,  999.0,  999.0,  999.0,  999.0,  999.0
2004/10/30 16:00,   -5.4,   -6.1,   -5.2,   -5.1,   -5.5,   -5.4,   -5.5,   -5.8,   -5.9,   -5.9,   -5.9,   -5.9,   -5.9,   -5.9,   -5.9,   -5.9,   -5.9,   -5.9,   -6.0,   -6.0,   -5.9,   -5.8,   -6.0,   -5.8,   -5.9,   -6.0,   -5.5,   -4.1,   -3.2,   -2.3,   -2.1,   -2.0,   -1.8,   -1.7,   -1.7,   -1.6,   -1.4,   -1.4,   -1.3,   -1.1,   -1.1,   -1.0,   -0.9,   -0.9,   -0.9,   -0.9,   -0.8,   -0.8,   -0.9,   -0.8,   -0.6,   -0.6,   -0.4,    0.1,    0.1,    0.0,   -0.0,   -0.1,   -0.1,   -0.1,   -0.1,   -0.2,   -0.2,   -0.3,   -0.5,   -1.1,   -1.1,   -1.2,  999.0,  999.0
2004/10/30 16:10,   -5.4,   -5.5,   -5.6,   -5.6,   -5.5,   -5.4,   -5.3,   -5.1,   -5.1,   -5.2,   -5.2,   -5.3,   -4.9,   -5.2,   -5.2,   -5.2,   -5.1,   -5.1,   -4.9,   -4.7,   -4.4,   -4.5,   -4.4,   -4.2,   -4.1,   -3.6,   -4.1,   -3.6,   -2.7,   -2.2,   -2.0,   -1.9,   -1.9,   -1.6,   -1.5,   -1.4,   -1.4,   -1.3,   -1.2,   -1.0,   -0.5,   -0.5,   -0.6,   -0.6,   -1.1,  999.0,  999.0,  999.0,  999.0,  999.0,  999.0,   -0.4,  999.0,  999.0,  999.0,  999.0,  999.0,  999.0,  999.0,  999.0,  999.0,  999.0,  999.0,  999.0,  999.0,  999.0,  999.0,  999.0,  999.0,  999.0
2004/10/30 16:20,   -4.2,   -4.3,   -4.1,   -4.2,   -4.3,   -4.2,   -4.0,   -3.9,   -3.9,   -3.9,   -3.6,   -3.6,   -3.5,   -3.3,   -3.2,   -3.0,   -2.9,   -2.8,   -2.7,   -2.7,   -2.9,   -3.1,   -3.3,   -3.2,   -3.1,   -3.1,   -3.1,   -3.2,   -2.9,   -2.1,   -1.4,   -1.3,   -1.1,   -1.0,   -0.9,   -0.8,   -0.8,   -0.7,   -0.8,   -0.6,   -0.6,   -0.8,  999.0,  999.0,    0.1,   -0.2,  999.0,  999.0,  999.0,  999.0,  999.0,  999.0,  999.0,  999.0,  999.0,  999.0,  999.0,  999.0,  999.0,  999.0,  999.0,  999.0,  999.0,  999.0,  999.0,  999.0,  999.0,  999.0,  999.0,  999.0
2004/10/30 16:30,   -3.9,   -3.9,   -4.1,   -5.0,   -4.9,   -4.8,   -4.6,   -5.0,   -4.8,   -4.7,   -4.6,   -4.5,   -4.5,   -4.5,   -4.5,   -4.4,   -4.4,   -5.3,   -6.9,   -5.4,   -5.5,   -5.5,   -5.5,   -5.6,   -5.3,   -5.5,   -4.9,   -4.2,   -3.7,   -2.5,   -2.0,   -2.0,   -1.8,   -1.4,   -1.3,   -0.5,   -0.3,    0.0,    0.2,    0.3,   -1.0,   -0.0,    0.2,    0.2,    0.1,    0.1,  999.0,  999.0,  999.0,  999.0,  999.0,  999.0,  999.0,  999.0,  999.0,  999.0,  999.0,  999.0,  999.0,  999.0,  999.0,  999.0,  999.0,  999.0,  999.0,  999.0,  999.0,  999.0,  999.0,  999.0
2004/10/30 16:40,   -6.3,   -6.1,   -6.0,   -6.1,   -6.3,   -6.5,   -6.3,   -6.4,   -6.4,   -6.2,   -6.6,   -6.6,   -7.1,   -7.0,   -6.8,   -6.8,   -6.9,   -6.9,   -6.7,   -7.0,   -7.0,   -7.1,   -7.1,   -7.1,   -6.5,   -6.2,   -5.7,   -5.1,   -3.6,   -2.4,   -1.1,   -0.8,   -0.8,   -0.8,   -0.5,   -0.4,   -0.4,   -0.1,   -0.2,    0.2,   -0.1,  999.0,   -0.3,   -0.3,   -0.1,   -0.2,   -0.1,  999.0,   -0.5,  999.0,  999.0,  999.0,  999.0,  999.0,  999.0,  999.0,  999.0,  999.0,  999.0,  999.0,  999.0,  999.0,  999.0,  999.0,  999.0,  999.0,  999.0,  999.0,  999.0,  999.0
2004/10/30 16:50,   -4.6,   -4.9,   -4.8,   -5.0,   -4.9,   -4.4,   -3.8,   -3.6,   -3.4,   -3.2,   -3.0,   -2.5,   -2.4,   -2.6,   -2.3,   -2.2,  999.0,  999.0,  999.0,   -1.8,   -2.0,   -1.5,   -1.3,   -1.2,   -0.8,   -1.7,   -1.1,   -0.9,   -1.1,   -0.2,    0.3,    0.1,   -0.2,    0.2,   -0.2,  999.0,    0.2,    0.2,    0.0,  999.0,    0.0,  999.0,   -0.2,   -0.0,  999.0,  999.0,  999.0,  999.0,  999.0,  999.0,  999.0,  999.0,  999.0,  999.0,  999.0,  999.0,  999.0,  999.0,  999.0,  999.0,  999.0,  999.0,  999.0,  999.0,  999.0,  999.0,  999.0,  999.0,  999.0,  999.0
2004/10/30 17:00,   -2.8,   -2.6,   -2.5,   -2.6,   -2.7,   -2.6,   -2.6,   -2.5,   -2.5,   -2.5,   -2.5,   -2.5,   -2.5,   -2.5,   -2.4,   -2.4,   -2.3,   -2.4,   -2.5,   -2.4,   -2.5,   -2.4,   -2.3,   -2.0,   -1.9,   -1.9,   -1.9,   -2.1,   -1.8,   -1.6,   -0.8,   -0.5,   -0.5,   -0.3,   -0.5,   -0.5,  999.0,   -0.5,   -0.3,    0.0,   -0.3,    0.0,  999.0,  999.0,   -1.2,   -0.9,   -0.8,   -0.9,   -0.9,   -0.9,   -0.7,   -0.9,   -0.7,   -0.7,   -0.5,   -0.3,   -0.2,   -0.1,    0.1,    0.2,    1.1,  999.0,  999.0,  999.0,  999.0,  999.0,  999.0,  999.0,  999.0,  999.0
2004/10/30 17:10,   -2.3,   -2.4,   -2.2,   -2.3,   -2.1,   -2.1,   -2.1,   -1.9,   -2.9,   -3.2,   -1.8,   -1.8,   -2.8,   -2.8,   -2.9,   -3.1,   -3.0,   -2.9,   -2.7,   -2.9,  999.0,  999.0,  999.0,  999.0,  999.0,   -2.8,   -2.9,  999.0,  999.0,   -2.2,  999.0,   -0.7,   -0.8,   -0.9,   -0.8,   -0.7,   -0.6,   -0.8,   -1.0,   -0.8,   -0.7,   -0.8,   -1.0,   -1.1,   -1.0,   -0.6,   -0.4,  999.0,  999.0,  999.0,   -0.2,   -0.1,  999.0,   -0.1,   -0.1,   -0.3,    0.2,  999.0,  999.0,  999.0,  999.0,  999.0,  999.0,  999.0,  999.0,  999.0,  999.0,  999.0,  999.0,  999.0
2004/10/30 17:20,   -2.7,   -2.6,   -2.5,   -3.1,   -3.8,   -3.8,   -3.9,   -3.8,   -3.9,   -3.8,   -3.8,   -3.8,   -3.8,   -3.8,   -3.6,   -3.4,   -3.5,   -3.1,   -3.0,   -3.0,   -3.3,  999.0,   -3.4,   -3.2,   -2.9,   -2.6,   -2.5,   -2.4,   -2.2,   -1.5,   -1.1,   -0.7,   -0.9,   -0.5,   -0.9,   -1.0,   -0.6,   -0.7,   -0.8,   -0.7,   -0.5,   -0.5,  999.0,  999.0,  999.0,   -0.5,  999.0,  999.0,  999.0,   -0.7,  999.0,  999.0,  999.0,  999.0,  999.0,  999.0,  999.0,  999.0,  999.0,  999.0,  999.0,  999.0,  999.0,  999.0,  999.0,  999.0,  999.0,  999.0,   -1.5,  999.0
2004/10/30 17:30,   -3.8,   -3.8,   -3.9,   -3.9,   -3.9,   -3.9,   -4.0,   -4.0,   -4.0,   -4.1,   -4.1,   -4.2,   -4.2,   -4.2,   -4.1,   -4.1,   -4.0,   -3.9,   -3.8,   -3.6,   -3.4,   -3.3,   -3.3,   -3.3,   -3.2,   -3.1,   -3.4,   -3.2,   -2.9,   -2.4,   -2.1,   -2.2,   -1.7,   -2.7,   -2.6,   -1.2,   -0.8,   -1.0,   -0.9,   -0.8,   -1.1,   -1.0,   -1.1,   -1.1,   -1.3,   -1.3,   -0.9,   -1.0,  999.0,   -1.1,   -0.8,   -0.9,   -1.4,  999.0,  999.0,   -2.3,   -2.6,   -2.1,   -2.3,   -2.2,   -1.9,   -1.9,   -1.8,   -1.7,   -1.7,   -1.8,   -1.6,   -1.4,   -1.3,   -1.5
2004/10/30 17:40,   -4.8,   -4.9,   -5.2,   -5.0,   -5.0,   -5.0,   -5.3,   -5.2,   -5.1,   -5.8,   -5.4,   -5.1,   -5.4,   -5.3,   -5.3,   -5.2,   -5.0,   -4.9,   -5.1,   -5.1,   -5.3,   -5.2,   -5.4,   -5.3,   -5.3,   -4.9,   -4.4,   -3.8,   -3.2,   -2.7,   -2.5,   -2.3,   -2.0,   -1.9,   -1.7,   -1.8,   -1.8,   -1.8,   -1.9,   -1.9,   -2.0,   -1.7,   -1.8,   -1.8,   -1.7,   -1.9,   -1.9,   -2.5,   -3.1,   -3.1,   -3.3,   -3.2,   -3.3,   -3.1,   -3.1,   -2.7,   -2.5,   -1.8,   -1.9,   -1.5,   -1.2,   -1.1,   -1.0,   -1.8,   -1.5,   -1.4,   -1.2,   -1.1,   -1.1,   -1.0
2004/10/30 17:50,   -5.6,   -5.8,   -5.7,   -5.8,   -5.6,   -6.1,   -6.0,   -5.9,   -5.8,   -5.8,   -5.8,   -6.1,   -6.1,   -6.1,   -6.0,   -6.1,   -6.1,   -6.0,   -5.8,   -5.6,   -5.5,   -5.5,   -5.5,   -5.2,   -5.0,   -5.4,  999.0,  999.0,   -2.0,   -1.8,   -2.4,   -1.3,   -1.1,   -1.5,   -1.3,   -0.9,   -1.2,   -2.0,  999.0,  999.0,  999.0,  999.0,   -4.6,  999.0,  999.0,   -6.0,   -4.3,   -3.9,   -4.4,   -4.1,   -3.6,   -3.4,   -3.2,   -3.1,   -2.8,   -2.4,   -2.7,   -2.6,   -2.4,   -2.3,   -2.1,   -0.6,   -0.6,   -0.6,   -0.6,   -0.7,   -0.7,   -0.5,   -0.5,   -0.5
2004/10/30 18:00,   -4.1,   -3.9,   -4.0,   -4.0,   -4.0,   -3.9,   -3.8,   -3.7,   -3.6,   -3.5,   -3.4,   -3.3,   -3.2,   -3.2,   -3.1,   -3.3,   -3.1,   -3.1,   -3.1,   -3.6,   -3.6,   -3.6,   -3.8,   -4.0,   -4.0,   -3.5,   -3.1,   -2.5,   -1.4,   -1.1,   -1.0,   -0.8,   -0.5,   -0.9,   -1.2,   -1.7,   -2.0,   -2.0,   -1.9,   -2.1,   -2.6,   -3.5,   -3.8,   -3.8,   -3.9,   -3.7,   -3.9,   -4.2,   -4.2,   -4.0,   -3.7,   -3.2,   -2.9,   -2.7,   -2.1,   -2.1,   -1.8,   -1.7,   -1.6,   -1.3,   -1.0,   -1.2,   -1.5,   -1.7,   -1.8,   -1.6,   -1.6,   -1.7,   -1.6,   -1.5
2004/10/30 18:10,   -3.8,   -2.4,   -2.5,   -2.5,   -2.5,   -3.8,   -3.7,   -4.4,   -4.9,   -5.0,   -5.0,   -5.3,   -5.5,   -5.4,   -5.1,   -4.9,   -5.1,   -5.1,   -5.2,   -5.4,   -5.5,   -5.5,   -5.5,   -5.5,   -5.5,   -5.0,   -4.0,  999.0,   -1.9,   -1.7,   -1.4,   -1.6,   -1.7,   -1.8,   -1.9,   -2.1,   -2.2,   -2.2,   -2.3,   -2.2,   -2.4,   -2.4,   -2.3,   -2.1,   -2.0,   -1.9,   -1.9,   -1.8,   -1.6,   -1.6,   -1.5,   -1.5,   -1.3,   -1.2,   -0.9,   -0.9,   -0.9,   -0.6,   -0.7,   -0.3,   -0.2,   -0.2,   -0.1,    0.1,    0.1,    0.2,    0.2,    0.2,    0.1,    0.2
2004/10/30 18:20,   -6.1,   -6.1,   -6.1,   -6.2,   -6.2,   -6.2,   -6.1,   -6.0,   -5.8,   -5.8,   -5.6,   -5.6,   -6.3,   -6.2,   -6.3,   -6.1,   -6.2,   -6.1,   -5.7,   -5.8,   -5.9,   -6.3,   -6.3,   -6.4,   -6.3,   -5.7,   -4.0,  999.0,   -1.8,   -1.6,   -1.4,   -1.5,   -1.6,   -1.7,   -1.8,   -1.9,   -2.0,   -2.0,   -2.1,   -2.2,   -2.2,   -2.3,   -2.4,   -2.5,   -2.5,   -2.3,   -2.3,   -2.1,   -2.1,   -1.7,   -1.4,   -1.4,   -1.2,   -1.1,   -1.0,   -0.4,   -0.4,   -0.3,   -0.2,   -0.1,   -0.6,   -0.6,   -0.6,   -0.6,   -0.7,   -0.7,   -0.7,   -0.8,   -1.1,   -1.3
2004/10/30 18:30,   -5.5,   -5.6,   -5.4,   -5.7,   -5.8,   -5.8,   -5.8,   -6.5,   -6.1,   -6.6,   -6.7,   -6.8,   -6.8,   -6.7,   -6.8,   -6.9,   -7.0,   -7.1,   -7.2,   -7.3,   -7.3,   -7.4,   -7.5,   -7.5,   -6.6,   -4.8,  999.0,   -2.6,   -2.2,   -2.3,   -2.3,   -2.3,   -2.3,   -2.3,   -2.3,   -2.2,   -2.2,   -2.1,   -2.1,   -2.0,   -1.9,   -1.9,   -1.8,   -1.7,   -1.5,   -1.5,   -1.5,   -1.4,   -1.3,   -1.3,   -1.6,   -1.6,   -1.4,   -1.4,   -1.3,   -1.4,   -1.4,   -1.4,   -1.4,   -1.3,   -1.5,   -1.4,   -1.3,   -1.3,   -1.3,   -1.3,   -1.3,   -1.3,   -1.4,   -1.5
2004/10/30 18:40,   -6.9,   -6.9,   -7.0,   -7.1,   -7.2,   -7.2,   -7.3,   -7.2,   -7.2,   -7.3,   -7.3,   -7.3,   -7.3,   -7.4,   -7.5,   -7.5,   -7.6,   -7.7,   -7.8,   -7.7,   -7.9,   -8.0,   -7.9,   -7.3,   -5.8,   -3.9,  999.0,   -1.7,   -1.9,   -1.9,   -1.8,   -1.9,   -1.7,   -1.7,   -1.5,   -1.4,   -1.4,   -1.3,   -1.4,   -1.5,   -1.5,   -1.6,   -1.8,   -1.9,   -1.9,   -1.9,   -1.9,   -1.8,   -1.7,   -1.5,   -1.3,   -1.4,   -1.4,   -1.3,   -1.4,   -1.4,   -1.5,   -1.5,   -1.4,   -1.3,   -1.2,   -1.2,   -1.1,   -0.9,   -1.1,   -1.1,   -1.1,   -1.4,   -1.4,   -1.4
2004/10/30 18:50,   -7.5,   -7.6,   -7.6,   -7.7,   -7.7,   -7.7,   -7.8,   -7.8,   -7.9,   -8.0,   -8.0,   -8.1,   -8.1,   -8.3,   -8.2,   -8.5,   -8.6,   -8.6,   -8.4,   -8.4,   -8.2,   -8.5,   -8.1,   -6.9,   -5.4,   -4.2,   -3.5,   -3.3,   -3.5,   -3.4,   -3.2,   -3.0,   -2.8,   -2.8,   -2.8,   -2.7,   -2.4,   -2.2,   -1.9,   -1.8,   -1.7,   -1.7,   -1.6,   -1.5,   -1.5,   -1.3,   -1.4,   -1.3,   -1.2,   -1.2,   -1.1,   -1.1,   -1.0,   -0.9,   -0.9,   -0.8,   -0.7,   -0.6,   -0.7,   -0.5,   -0.6,   -0.6,   -0.7,   -0.6,   -0.8,   -1.0,   -1.0,   -1.2,   -1.3,   -1.1
2004/10/30 19:00,   -7.1,   -7.0,   -6.9,   -6.8,   -6.7,   -6.5,   -6.4,   -6.2,   -6.2,   -6.2,   -6.2,   -6.1,   -6.1,   -6.2,   -6.4,   -6.9,   -7.3,   -7.5,   -7.9,   -8.4,   -8.5,   -8.5,   -7.7,   -6.4,   -4.8,  999.0,   -3.0,   -2.7,   -2.7,   -2.6,   -2.5,   -2.6,   -2.6,   -2.4,   -2.5,   -2.4,   -2.2,   -1.8,   -1.7,   -1.6,   -1.3,   -1.1,   -1.1,   -1.2,   -1.1,   -1.1,   -1.2,   -1.3,   -1.2,   -1.1,   -1.1,   -1.1,   -0.9,   -0.9,   -0.8,   -0.7,   -0.7,   -0.7,   -0.8,   -0.7,   -0.9,   -0.9,   -1.0,   -1.3,   -1.2,   -1.3,   -1.3,   -1.4,   -1.2,   -1.3
2004/10/30 19:10,   -7.7,   -7.7,   -7.7,   -7.9,   -8.0,   -8.1,   -8.0,   -8.1,   -8.1,   -8.1,   -8.0,   -8.1,   -8.2,   -8.3,   -8.4,   -8.4,   -8.4,   -8.3,   -7.9,   -8.0,   -8.2,   -8.3,   -7.7,   -7.1,   -5.3,   -3.4,   -2.7,   -2.5,   -2.5,   -2.4,   -2.6,   -2.4,   -2.5,   -2.4,   -2.1,   -1.9,   -1.9,   -1.8,   -1.7,   -1.7,   -1.5,   -1.4,   -1.3,   -1.2,   -1.2,   -1.2,   -1.0,   -1.0,   -0.9,   -0.7,   -0.6,   -0.6,   -0.5,   -0.3,   -0.4,   -0.7,   -0.8,   -0.6,   -0.7,   -0.7,   -0.7,   -0.7,   -0.5,   -0.6,   -1.0,   -0.4,   -0.9,   -0.9,   -0.8,   -1.0
2004/10/30 19:20,   -7.3,   -7.3,   -7.3,   -7.4,   -7.7,   -7.9,   -8.1,   -8.1,   -8.2,   -8.2,   -8.2,   -8.3,   -8.4,   -8.4,   -8.3,   -8.2,   -8.0,   -8.0,   -8.0,   -7.9,   -7.9,   -7.6,   -6.9,   -5.5,   -3.8,   -2.4,   -1.7,   -1.5,   -1.3,   -1.4,   -1.4,   -1.6,   -1.4,   -1.6,   -1.6,   -1.6,   -1.4,   -1.4,   -1.1,  999.0,   -1.1,   -1.2,   -1.2,   -1.0,   -0.9,   -1.1,   -1.3,   -1.3,   -1.2,   -1.3,   -1.3,   -1.2,   -1.2,   -1.0,   -1.1,   -1.0,   -1.0,   -0.9,   -0.8,   -0.7,   -0.2,   -0.6,   -0.5,   -0.7,   -0.8,   -1.3,   -1.5,   -1.1,   -1.0,   -0.9
2004/10/30 19:30,   -7.5,   -7.5,   -7.6,   -7.8,   -7.9,   -8.0,   -8.0,   -8.1,   -8.2,   -8.2,   -8.3,   -8.3,   -8.2,   -8.0,   -8.2,   -8.1,   -8.2,   -8.3,   -8.4,   -8.4,   -8.0,   -7.5,   -6.0,   -4.3,   -2.9,   -2.5,   -2.3,   -2.1,   -1.9,   -1.7,   -1.6,   -1.5,   -1.6,   -1.8,   -1.9,   -1.8,   -1.9,   -1.9,   -1.8,   -1.8,   -1.9,   -1.9,   -1.9,   -1.9,   -2.0,   -1.9,   -2.1,   -1.9,   -1.7,   -1.5,   -1.5,   -1.4,   -1.4,   -1.6,   -1.5,   -1.6,   -1.6,   -1.6,   -1.6,   -1.6,   -1.4,   -1.4,   -1.3,   -1.4,   -1.3,   -1.2,   -1.4,   -1.2,   -1.1,   -1.1
2004/10/30 19:40,   -7.4,   -7.4,   -7.6,   -7.7,   -7.7,   -7.8,   -7.7,   -7.6,   -7.5,   -7.5,   -7.2,   -7.1,   -7.3,   -7.5,   -7.5,   -7.5,   -7.7,   -7.8,   -7.8,   -7.7,   -7.7,   -7.1,   -6.2,   -4.8,   -3.7,   -3.0,   -2.6,   -2.6,   -2.5,   -2.4,   -2.3,   -2.3,   -2.4,   -2.3,   -2.2,   -2.2,   -2.3,   -2.2,   -2.0,   -2.2,   -2.0,   -2.1,   -2.0,   -1.9,   -1.9,   -1.8,   -1.6,   -1.6,   -1.4,   -1.3,   -1.2,   -1.0,   -0.8,   -0.8,   -0.8,   -0.9,   -0.7,   -0.6,   -0.4,   -0.4,   -0.3,   -0.3,   -0.3,   -0.7,   -0.6,   -0.6,   -0.7,   -0.7,   -0.8,   -0.7
2004/10/30 19:50,   -6.5,   -6.4,   -6.3,   -6.4,   -6.4,   -6.4,   -6.5,   -6.4,   -6.2,   -6.2,   -6.1,   -6.0,   -5.9,   -6.0,   -6.1,   -6.3,   -6.5,   -6.5,   -6.6,   -6.6,   -6.5,   -6.5,   -6.5,   -5.3,   -3.9,   -3.1,   -2.8,   -2.7,   -2.6,   -2.4,   -2.4,   -2.5,   -2.5,   -2.3,   -2.3,   -2.2,   -2.1,   -2.1,   -2.0,   -2.0,   -1.9,   -1.9,   -1.9,   -1.8,   -1.7,   -1.6,   -1.4,   -1.2,   -1.2,   -1.3,   -1.4,   -1.3,   -1.1,   -1.0,   -0.9,   -0.9,   -0.9,   -0.9,   -1.0,   -1.1,   -1.0,   -1.1,   -1.1,   -1.0,   -1.0,   -0.9,   -0.9,   -0.9,   -1.0,   -1.0
2004/10/30 20:00,   -5.8,   -5.7,   -5.7,   -5.8,   -5.9,   -6.1,   -6.1,   -6.1,   -6.0,   -5.9,   -5.9,   -6.2,   -6.3,   -6.4,   -6.5,   -6.6,   -6.8,   -6.8,   -6.9,   -6.9,   -7.0,   -7.1,   -6.5,   -4.8,   -3.4,   -2.7,   -2.5,   -2.5,   -2.3,   -2.3,   -2.1,   -2.1,   -2.0,   -2.0,   -1.9,   -1.9,   -1.8,   -1.7,   -1.6,   -1.6,   -1.5,   -1.4,   -1.5,   -1.4,   -1.2,   -1.2,   -1.3,   -1.3,   -1.3,   -1.4,   -1.3,   -1.4,   -1.4,   -1.4,   -1.5,   -1.5,   -1.5,   -1.6,   -1.6,   -1.6,   -1.6,   -1.7,   -1.8,   -1.8,   -1.8,   -1.7,   -1.7,   -1.6,   -1.6,   -1.6
2004/10/30 20:10,   -6.4,   -6.5,   -6.3,   -6.4,   -6.6,   -6.8,   -6.9,   -6.9,   -6.9,   -6.7,   -6.8,   -6.8,   -6.9,   -7.0,   -7.1,   -7.0,   -7.1,   -7.2,   -7.0,   -7.0,   -7.0,   -6.9,   -6.4,   -5.3,   -4.4,   -3.5,   -2.8,   -2.4,   -2.3,   -2.3,   -2.2,   -2.2,   -2.2,   -2.2,   -2.1,   -2.1,   -2.1,   -2.1,   -2.0,   -2.0,   -1.8,   -1.9,   -1.8,   -1.8,   -1.6,   -1.5,   -1.3,   -1.3,   -1.3,   -1.3,   -1.2,   -1.2,   -1.0,   -1.0,   -0.9,   -1.1,   -1.1,   -1.0,   -1.1,   -1.1,   -1.2,   -1.3,   -1.4,   -1.2,   -1.1,   -1.0,   -1.2,   -1.0,   -0.9,   -1.2
2004/10/30 20:20,   -5.6,   -5.5,   -5.5,   -5.6,   -5.6,   -5.7,   -5.7,   -5.8,   -5.8,   -5.8,   -5.9,   -6.0,   -6.1,   -6.1,   -6.1,   -6.2,   -6.3,   -6.4,   -6.5,   -6.6,   -6.6,   -6.6,   -6.2,   -5.3,   -4.2,   -3.1,   -2.9,   -2.3,   -2.3,   -2.1,   -2.2,   -2.0,   -1.9,   -1.8,   -1.7,   -1.7,   -1.5,   -1.5,   -1.3,   -1.2,   -1.1,   -1.0,   -0.7,   -0.5,   -0.4,   -0.2,   -0.1,   -0.4,   -0.4,   -0.3,   -0.3,   -0.4,   -0.4,   -0.5,   -0.3,   -0.3,   -0.3,   -0.3,   -0.2,   -0.3,   -0.2,   -0.2,   -0.5,   -0.5,   -0.4,   -0.4,   -0.8,   -0.8,   -0.8,   -0.8
2004/10/30 20:30,   -5.2,   -5.4,   -5.1,   -5.0,   -5.0,   -5.0,   -5.0,   -5.0,   -5.0,   -5.0,   -5.0,   -5.0,   -5.0,   -4.9,   -4.9,   -4.9,   -4.9,   -4.9,   -4.8,   -4.7,   -4.6,   -4.6,   -4.6,   -4.3,   -3.8,   -3.1,   -2.7,   -2.5,   -2.5,   -3.0,   -3.2,   -3.4,   -3.3,   -2.7,   -2.3,   -2.0,   -2.0,   -1.7,   -1.7,   -1.5,   -0.8,   -0.5,   -0.4,   -0.3,   -0.4,   -0.5,   -0.2,   -0.2,   -0.6,   -0.5,   -0.4,   -0.6,   -1.0,   -0.6,   -0.3,   -0.3,   -0.2,   -0.2,   -0.3,   -0.3,   -0.4,   -0.4,   -0.5,   -0.4,   -0.6,   -0.8,   -1.0,   -1.0,   -1.3,   -1.3
2004/10/30 20:40,   -4.8,   -4.8,   -4.7,   -4.8,   -5.0,   -5.0,   -5.0,   -4.9,   -4.9,   -4.9,   -5.0,   -5.1,   -5.1,   -5.0,   -5.2,   -5.3,   -4.9,   -4.7,   -5.6,   -5.5,   -5.4,   -5.5,   -5.2,   -4.3,   -3.4,   -2.6,   -2.4,   -2.5,   -2.6,   -2.5,   -2.3,   -2.3,   -2.2,   -2.0,   -1.7,   -1.6,   -1.5,   -1.2,   -1.2,   -1.2,   -1.0,   -1.1,   -1.1,   -1.3,   -1.5,   -1.6,   -1.6,   -1.8,   -1.8,   -1.9,   -1.6,   -1.6,   -1.6,   -1.5,   -1.4,   -1.1,   -1.0,   -1.0,   -1.1,   -0.9,   -1.0,   -1.1,   -1.2,   -1.2,   -1.3,   -1.3,   -1.3,   -1.3,   -1.2,   -1.1
2004/10/30 20:50,   -6.6,   -6.5,   -6.4,   -6.7,   -7.0,   -7.3,   -7.1,   -7.2,   -7.1,   -7.1,   -7.1,   -7.2,   -7.4,   -7.3,   -7.3,   -7.1,   -7.0,   -7.0,   -7.0,   -7.2,   -7.3,   -7.1,   -6.2,   -4.9,   -3.9,   -3.2,   -3.1,   -3.0,   -3.0,   -2.9,   -2.8,   -2.6,   -2.4,   -2.0,   -2.3,   -1.9,   -1.8,   -1.8,   -1.7,   -1.4,   -1.1,   -1.2,   -1.4,   -1.2,   -1.2,   -1.1,   -1.1,   -0.7,   -1.0,   -1.2,   -1.1,   -0.7,   -0.4,   -0.2,   -0.3,   -0.3,   -0.4,   -0.3,   -0.2,   -0.5,   -0.8,   -0.6,   -0.7,   -0.7,   -1.1,   -1.0,   -0.9,   -1.2,   -1.0,   -0.5
2004/10/30 21:00,   -6.1,   -6.1,   -6.0,   -6.0,   -5.9,   -6.0,   -5.9,   -5.9,   -5.8,   -5.7,   -5.7,   -5.5,   -5.7,   -5.7,   -5.7,   -5.5,   -5.5,   -5.5,   -5.6,   -5.4,   -5.5,   -5.3,   -5.2,   -4.5,   -4.0,   -3.4,   -3.1,   -2.8,   -2.6,   -2.3,   -2.0,   -1.9,   -1.8,   -1.6,   -1.6,   -1.4,   -1.4,   -1.1,   -0.9,   -1.0,   -0.8,   -0.6,   -0.5,   -0.3,   -0.1,   -0.2,   -0.1,   -0.0,    0.0,    0.1,   -0.1,   -0.1,   -0.4,   -0.2,   -0.2,   -0.0,    0.2,    0.2,    0.2,  999.0,  999.0,   -0.1,   -0.3,  999.0,   -0.4,  999.0,  999.0,  999.0,  999.0,  999.0
2004/10/30 21:10,   -5.5,   -4.8,   -4.9,   -5.2,   -5.3,   -5.2,   -5.3,   -5.4,   -5.4,   -5.5,   -5.8,   -5.7,   -5.7,   -5.5,   -5.5,   -6.0,   -5.8,   -5.8,   -5.7,   -6.2,   -6.3,   -6.2,   -5.7,   -5.4,   -4.6,   -4.0,   -3.7,   -3.2,   -2.7,   -2.0,   -1.8,   -1.7,   -1.6,   -1.5,   -1.4,   -1.2,   -1.2,   -1.3,   -1.1,   -1.0,   -1.2,   -1.1,   -0.8,   -0.7,   -0.6,   -0.6,   -0.5,   -0.6,   -0.6,   -0.7,   -0.9,   -1.2,   -1.8,   -1.1,   -1.2,  999.0,  999.0,  999.0,  999.0,  999.0,  999.0,  999.0,  999.0,  999.0,  999.0,  999.0,  999.0,  999.0,  999.0,  999.0
2004/10/30 21:20,   -4.6,   -5.3,   -5.5,   -5.9,   -5.8,   -6.0,   -5.9,   -5.9,   -6.1,   -5.9,   -6.0,   -5.7,   -5.7,   -5.8,   -5.9,   -5.9,   -5.7,   -5.6,   -5.6,   -5.5,   -5.1,   -5.0,   -4.6,   -4.4,   -4.2,   -3.9,   -3.6,   -3.3,   -3.0,   -2.4,   -1.9,   -1.6,   -1.3,   -0.9,   -0.8,   -0.4,   -0.6,   -0.3,   -0.1,    0.2,   -0.2,   -0.9,   -0.9,   -0.4,   -0.4,   -0.6,  999.0,   -0.2,   -0.7,  999.0,  999.0,  999.0,   -0.1,   -0.1,  999.0,  999.0,  999.0,  999.0,  999.0,  999.0,  999.0,  999.0,  999.0,  999.0,  999.0,  999.0,  999.0,  999.0,  999.0,  999.0
2004/10/30 21:30,   -4.6,   -3.9,   -4.1,   -3.7,   -4.3,   -3.2,   -4.7,   -4.5,   -4.4,   -4.2,   -4.2,   -4.1,   -3.8,   -3.5,   -3.5,   -2.6,   -4.4,   -4.3,   -4.5,   -4.4,   -4.3,   -5.5,   -5.3,   -4.3,   -4.4,   -5.4,   -4.8,   -4.1,   -3.4,   -2.5,   -1.9,   -1.6,   -1.4,   -2.9,   -2.8,   -2.7,   -1.7,   -1.5,   -1.1,   -1.2,   -3.1,   -1.5,   -0.9,   -1.1,   -0.6,   -0.8,   -0.7,   -0.7,   -0.5,   -0.5,   -0.4,   -0.2,   -0.2,   -1.7,    0.0,    0.3,    0.3,  999.0,  999.0,  999.0,  999.0,  999.0,  999.0,  999.0,  999.0,  999.0,  999.0,  999.0,  999.0,  999.0
2004/10/30 21:40,   -6.9,   -6.9,   -7.0,   -6.8,   -7.0,   -7.0,   -7.0,   -7.0,   -7.0,   -7.0,   -6.9,   -6.8,   -6.6,   -6.5,   -6.6,   -6.8,   -6.7,   -6.5,   -6.4,   -6.1,   -5.6,   -5.7,   -5.6,   -5.6,   -5.7,   -5.6,   -5.0,   -3.9,   -2.9,   -2.2,   -2.3,   -2.3,   -1.9,   -1.9,   -1.8,   -1.6,   -1.3,   -1.0,   -0.9,   -1.2,   -1.2,   -1.0,   -0.8,   -0.7,   -0.2,   -0.3,   -0.8,   -0.2,   -0.4,   -0.2,   -0.2,   -0.6,   -0.8,   -0.2,   -0.6,   -0.3,    0.6,    1.0,  999.0,  999.0,  999.0,  999.0,  999.0,  999.0,  999.0,  999.0,  999.0,  999.0,  999.0,  999.0
2004/10/30 21:50,   -4.7,   -4.6,   -4.3,   -4.2,   -4.4,   -4.4,   -4.3,   -4.4,   -4.2,   -4.2,   -4.1,   -4.0,   -3.8,   -3.9,   -3.9,   -4.0,   -3.8,   -3.6,   -3.6,   -3.3,   -3.6,   -3.3,   -3.6,   -3.3,   -2.5,   -2.4,   -2.4,   -2.6,   -2.8,   -2.6,   -2.5,   -2.2,   -2.0,   -1.9,   -1.8,   -1.9,   -1.9,   -1.5,   -1.0,   -0.6,   -0.4,    0.4,   -0.8,   -0.4,   -0.1,   -0.8,    0.2,    0.6,    0.2,    0.4,    0.2,    0.2,   -0.1,   -0.5,   -0.2,   -0.1,   -0.0,   -0.3,  999.0,  999.0,  999.0,  999.0,  999.0,  999.0,  999.0,  999.0,  999.0,  999.0,  999.0,  999.0
2004/10/30 22:00,   -4.5,   -4.8,   -5.0,   -4.1,   -3.3,   -3.7,   -3.5,   -3.4,   -3.1,   -3.2,   -4.6,   -3.6,   -3.3,   -3.4,   -3.1,   -3.3,   -3.2,   -3.3,   -3.2,   -2.9,   -3.6,   -3.3,   -3.2,   -2.9,   -2.8,   -4.6,   -4.6,   -4.1,   -4.0,   -2.7,   -2.7,   -3.2,   -2.7,   -2.0,   -1.5,   -1.1,   -1.0,   -0.9,   -1.0,   -1.1,  999.0,   -0.8,   -0.2,    0.1,   -0.3,    0.0,   -0.1,    0.1,    0.2,  999.0,  999.0,  999.0,  999.0,  999.0,  999.0,  999.0,  999.0,  999.0,  999.0,  999.0,  999.0,  999.0,  999.0,  999.0,  999.0,  999.0,  999.0,  999.0,  999.0,  999.0
2004/10/30 22:10,   -4.1,   -4.1,   -4.2,   -4.1,   -4.1,   -4.1,   -3.6,   -3.7,   -4.1,   -3.6,   -3.9,   -3.7,   -3.7,   -4.0,   -4.0,   -4.1,   -4.3,   -4.1,   -4.1,   -3.9,   -3.8,   -3.5,   -3.4,   -3.4,   -3.2,   -3.1,   -2.9,   -2.9,   -2.8,   -2.4,   -1.9,   -1.1,   -1.7,   -1.9,   -1.5,   -1.5,   -1.6,   -1.7,   -1.9,   -1.3,   -1.2,   -0.8,   -1.2,   -1.0,   -0.5,    0.8,    0.2,    0.2,    0.7,  999.0,  999.0,  999.0,  999.0,  999.0,  999.0,  999.0,  999.0,  999.0,  999.0,  999.0,  999.0,  999.0,  999.0,  999.0,  999.0,  999.0,  999.0,  999.0,  999.0,  999.0
2004/10/30 22:20,   -3.7,   -3.6,   -3.6,   -3.4,   -3.7,   -3.4,   -3.1,   -3.0,   -3.9,   -2.8,   -3.6,   -3.5,   -3.3,   -4.3,   -4.2,   -4.7,   -4.7,   -4.8,   -5.4,   -4.7,   -4.6,   -4.8,   -4.4,   -4.3,   -4.0,   -4.0,   -4.0,   -4.0,   -3.7,   -2.8,   -2.4,   -2.1,   -2.0,   -1.9,   -1.8,   -1.5,   -1.4,   -1.2,   -1.5,   -1.4,   -1.4,   -1.2,   -1.6,   -1.6,   -1.6,   -1.9,   -1.8,   -1.1,   -0.5,  999.0,   -0.8,   -0.7,   -0.6,   -0.5,  999.0,  999.0,  999.0,  999.0,  999.0,  999.0,  999.0,  999.0,  999.0,  999.0,  999.0,  999.0,  999.0,  999.0,  999.0,  999.0
2004/10/30 22:30,   -5.2,   -5.3,   -5.3,   -5.3,   -5.3,   -5.2,   -4.9,   -4.6,   -4.2,   -4.2,   -4.1,   -4.1,   -4.2,   -4.1,   -4.3,   -3.8,   -3.6,   -3.5,   -3.4,   -3.3,   -3.2,   -3.3,   -3.5,   -3.4,   -3.4,   -4.0,   -4.2,   -4.0,   -3.7,   -3.4,   -2.5,   -2.2,   -2.1,   -2.1,   -1.8,   -1.5,   -1.4,   -1.4,   -1.2,   -1.1,   -1.1,   -1.2,   -1.2,   -1.0,   -0.9,   -0.7,   -0.4,   -0.4,   -0.5,   -0.4,   -0.3,   -0.2,   -0.1,   -0.2,  999.0,  999.0,  999.0,  999.0,  999.0,  999.0,  999.0,  999.0,  999.0,  999.0,  999.0,  999.0,  999.0,  999.0,  999.0,  999.0
2004/10/30 22:40,   -4.6,   -4.5,   -4.6,   -4.6,   -4.7,   -4.7,   -4.5,   -4.2,   -4.1,   -4.1,   -4.3,   -4.2,   -4.6,   -4.9,   -4.7,   -4.5,   -4.4,   -4.3,   -4.0,   -3.8,   -4.2,   -4.0,   -4.0,   -3.7,   -4.0,   -4.1,   -4.1,   -4.2,   -4.3,   -3.9,   -3.3,   -2.7,   -2.2,   -1.6,   -1.6,   -1.7,   -1.7,   -1.6,   -1.4,   -1.4,   -1.1,   -1.0,   -0.6,   -0.7,   -0.9,   -0.9,   -1.0,   -0.9,   -0.7,   -0.3,   -0.3,   -0.1,    0.2,   -0.3,  999.0,  999.0,  999.0,  999.0,  999.0,  999.0,  999.0,  999.0,  999.0,  999.0,  999.0,  999.0,  999.0,  999.0,  999.0,  999.0
2004/10/30 22:50,   -3.7,   -4.0,   -4.0,   -4.4,   -4.5,   -4.5,   -4.7,   -4.7,   -4.9,   -4.7,   -4.6,   -4.7,   -4.3,   -4.2,   -4.0,   -3.9,   -3.4,   -3.2,   -3.1,   -3.1,   -2.7,   -2.5,   -3.0,   -2.8,   -2.8,   -1.2,   -1.1,   -0.7,   -0.4,  999.0,  999.0,   -1.6,   -0.5,   -0.4,   -0.4,   -0.6,   -0.9,   -0.8,   -1.0,   -1.4,   -1.0,   -0.8,   -0.9,   -0.9,   -1.2,   -1.2,   -1.1,   -1.1,   -1.3,   -1.3,   -1.3,   -1.1,   -1.4,   -1.0,   -1.3,   -1.3,   -1.4,   -1.1,   -1.0,   -1.0,   -0.5,  999.0,   -0.4,    0.1,  999.0,  999.0,  999.0,  999.0,  999.0,  999.0
2004/10/30 23:00,   -2.9,   -3.2,   -3.4,   -3.0,   -2.8,   -2.5,   -2.0,   -2.6,   -2.3,   -2.0,   -1.9,   -1.8,   -1.8,   -1.8,   -1.7,   -1.6,   -1.4,   -1.4,   -1.2,   -1.1,   -1.0,   -1.1,   -0.8,   -0.5,   -0.0,    0.0,   -1.1,   -1.3,   -0.9,   -1.0,   -1.3,   -0.7,   -0.6,   -0.8,   -0.5,   -0.6,   -0.6,   -0.8,   -1.1,   -1.3,   -1.0,   -1.0,   -1.2,   -1.0,   -1.0,   -1.1,   -1.2,   -1.3,   -1.5,   -1.2,   -1.3,   -1.3,   -1.2,   -1.5,   -1.7,   -1.3,   -1.2,   -0.8,   -0.4,   -0.2,   -0.1,    0.0,    0.3,    0.7,  999.0,  999.0,  999.0,  999.0,  999.0,  999.0
2004/10/30 23:10,   -0.1,   -0.5,   -0.4,   -1.7,   -1.0,   -1.2,  999.0,   -0.7,   -0.9,   -1.4,   -1.6,   -0.4,   -0.5,   -0.7,   -1.1,   -0.9,   -1.0,   -1.0,   -1.0,   -0.8,   -0.9,   -0.9,  999.0,  999.0,   -4.4,   -4.1,   -4.1,   -4.0,   -3.4,   -3.0,   -2.2,   -1.8,   -1.7,   -1.6,   -1.5,   -1.5,   -1.5,   -1.2,   -1.0,   -0.8,   -0.7,   -0.6,   -0.6,   -0.5,   -0.9,   -1.2,   -1.6,   -1.1,   -0.7,   -0.7,   -0.7,   -0.8,   -1.1,   -0.9,   -0.8,   -0.9,   -0.8,   -0.6,  999.0,  999.0,  999.0,  999.0,  999.0,  999.0,  999.0,  999.0,  999.0,  999.0,  999.0,  999.0
2004/10/30 23:20,    0.0,   -0.1,   -0.2,   -0.2,   -0.9,   -1.4,   -2.8,   -2.3,   -2.2,   -3.6,   -3.6,   -3.5,   -3.3,   -2.3,   -2.3,   -2.1,   -2.5,   -2.0,   -2.5,   -2.6,   -3.2,   -3.8,   -4.0,   -4.0,   -3.9,   -3.9,   -3.7,   -3.5,   -3.5,   -3.2,   -2.9,   -2.6,   -2.5,   -2.4,   -2.5,   -2.4,   -2.2,   -1.8,   -1.3,   -0.9,   -1.0,   -0.6,   -0.4,   -0.4,   -0.4,    0.3,   -0.1,    0.1,    0.1,    0.1,    0.1,    0.2,    0.1,    0.3,    0.3,  999.0,  999.0,  999.0,  999.0,  999.0,  999.0,  999.0,  999.0,  999.0,  999.0,  999.0,  999.0,   -0.9,   -0.8,   -0.9
2004/10/30 23:30,   -4.5,   -4.4,   -4.3,   -4.6,   -4.2,   -4.1,   -3.9,   -3.8,   -3.8,   -3.8,   -3.8,   -3.8,   -3.6,   -3.5,   -3.6,   -3.5,   -3.3,   -3.0,   -2.8,   -2.7,   -2.5,   -2.5,   -2.4,   -2.5,   -2.5,   -1.7,   -1.9,   -2.6,   -3.3,   -2.9,   -1.9,   -0.8,   -1.4,   -0.9,   -0.7,   -1.3,   -1.1,   -1.2,   -1.1,   -1.2,   -1.2,   -1.2,   -1.0,   -0.7,   -0.4,   -0.1,    0.1,   -0.1,   -0.1,  999.0,  999.0,  999.0,  999.0,  999.0,  999.0,  999.0,  999.0,  999.0,  999.0,  999.0,  999.0,  999.0,  999.0,  999.0,  999.0,  999.0,   -1.6,   -1.7,   -2.1,   -2.0
2004/10/30 23:40,   -3.4,   -2.7,   -1.9,   -2.6,   -2.6,   -2.5,   -2.1,   -2.1,   -2.1,   -2.3,   -2.2,   -2.1,   -2.0,   -2.1,   -2.1,   -1.8,   -1.9,   -1.8,   -2.5,   -2.2,   -2.1,   -1.9,   -1.9,   -1.6,   -1.7,   -2.0,   -1.6,   -1.2,   -0.8,   -1.3,   -0.7,   -0.7,   -0.7,   -0.6,   -0.5,   -0.5,   -0.5,  999.0,  999.0,  999.0,  999.0,  999.0,  999.0,  999.0,  999.0,  999.0,  999.0,  999.0,  999.0,  999.0,  999.0,  999.0,  999.0,  999.0,  999.0,  999.0,  999.0,  999.0,  999.0,  999.0,  999.0,  999.0,   -1.9,   -2.0,   -1.8,   -1.8,   -2.0,   -2.3,   -2.3,   -2.3
2004/10/30 23:50,   -1.6,   -1.6,   -1.2,   -1.4,   -1.6,   -1.6,   -1.1,   -1.3,   -1.4,   -1.5,   -1.6,   -1.9,   -1.5,   -1.7,   -1.7,   -1.7,   -1.5,   -1.4,   -1.3,   -1.1,   -1.0,   -0.6,   -0.4,   -0.3,   -0.3,   -0.4,   -0.3,   -0.2,   -0.3,    0.2,   -0.2,   -0.0,    0.1,    0.0,    0.0,    0.0,   -0.2,  999.0,  999.0,  999.0,  999.0,  999.0,  999.0,  999.0,  999.0,  999.0,  999.0,  999.0,  999.0,  999.0,  999.0,  999.0,  999.0,  999.0,   -0.7,  999.0,  999.0,  999.0,  999.0,  999.0,  999.0,  999.0,  999.0,   -1.3,   -1.4,   -1.0,   -1.6,   -1.9,   -1.6,  999.0
